CW2046 Weather Reports


time (UTC)temp
C
wind
direction
speed
KPH
gust
KPH
rain 1hr
cm
rain 24hr
cm
rain mn
cm
humidity
%
barometer
mb
20260906125758 23 158 0.0 0.0 0.00 0.18 0.00 89 1014.2
20260906125659 23 158 0.0 0.0 0.00 0.18 0.00 89 1014.1
20260906125558 23 158 0.0 0.0 0.00 0.18 0.00 89 1014.1
20260906125458 23 158 0.0 0.0 0.00 0.18 0.00 89 1014.2
20260906125358 23 162 0.0 0.0 0.00 0.18 0.00 89 1014.1
20260906125159 23 162 0.0 0.0 0.00 0.18 0.00 89 1014.0
20260906125058 22 165 0.0 0.0 0.00 0.18 0.00 89 1014.0
20260906124858 22 165 0.0 0.0 0.00 0.18 0.00 89 1014.1
20260906124758 22 165 0.0 0.0 0.00 0.18 0.00 89 1014.1
20260906124658 22 165 0.0 0.0 0.00 0.18 0.00 89 1014.1
20260906124600 22 165 0.0 0.0 0.00 0.18 0.00 89 1013.4
20260906124458 22 165 0.0 0.0 0.00 0.18 0.00 89 1014.0
20260906124257 22 165 0.0 0.0 0.00 0.18 0.00 89 1014.1
20260906124157 22 165 0.0 0.0 0.00 0.18 0.00 89 1014.0
20260906124057 22 165 0.0 0.0 0.00 0.18 0.00 89 1014.0
20260906123857 22 165 0.0 0.0 0.00 0.18 0.00 89 1014.0
20260906123757 22 165 0.0 0.0 0.00 0.18 0.00 89 1013.9
20260906123657 22 165 0.0 0.0 0.00 0.18 0.00 89 1013.9
20260906123558 22 165 0.0 0.0 0.00 0.18 0.00 89 1013.9
20260906123458 22 165 0.0 0.0 0.00 0.18 0.00 89 1013.9
20260906123258 21 165 0.0 0.0 0.00 0.18 0.00 89 1013.9
20260906123157 21 165 0.0 0.0 0.00 0.18 0.00 89 1014.0
20260906123104 21 165 0.0 0.0 0.00 0.18 0.00 89 1013.2
20260906122957 21 165 0.0 0.0 0.00 0.18 0.00 89 1013.9
20260906122858 21 165 0.0 0.0 0.00 0.18 0.00 89 1013.9
20260906122757 21 167 0.0 0.0 0.00 0.18 0.00 89 1013.8
20260906122659 21 241 0.0 0.0 0.00 0.18 0.00 89 1014.0
20260906122458 21 241 0.0 0.0 0.00 0.18 0.00 89 1014.0
20260906122357 21 240 0.0 0.0 0.00 0.18 0.00 89 1013.9
20260906122257 21 241 0.0 0.0 0.00 0.18 0.00 89 1014.0
20260906122157 21 241 0.0 0.0 0.00 0.18 0.00 89 1013.9
20260906122058 21 240 0.0 0.0 0.00 0.18 0.00 89 1013.9
20260906121957 21 240 0.0 0.0 0.00 0.18 0.00 89 1014.0
20260906121857 21 241 0.0 0.0 0.00 0.18 0.00 89 1014.1
20260906121757 21 242 0.0 0.0 0.00 0.18 0.00 89 1014.0
20260906121658 21 242 0.0 0.0 0.00 0.18 0.00 89 1014.0
20260906121558 21 242 0.0 0.0 0.00 0.18 0.00 89 1013.3
20260906121457 21 242 0.0 0.0 0.00 0.18 0.00 89 1014.0
20260906121358 21 242 0.0 0.0 0.00 0.18 0.00 89 1014.1
20260906121257 21 242 0.0 0.0 0.00 0.18 0.00 89 1014.0
20260906121158 21 157 0.0 0.0 0.00 0.18 0.00 89 1014.1
20260906121057 21 157 0.0 0.0 0.00 0.18 0.00 89 1014.0
20260906120858 21 157 0.0 0.0 0.00 0.18 0.00 89 1014.0
20260906120758 21 157 0.0 0.0 0.00 0.18 0.00 89 1014.1
20260906120657 21 156 0.0 0.0 0.00 0.18 0.00 89 1013.9
20260906120557 21 156 0.0 0.0 0.00 0.18 0.00 89 1013.9
20260906120458 21 157 0.0 0.0 0.00 0.18 0.00 89 1014.0
20260906120357 21 156 0.0 0.0 0.00 0.18 0.00 89 1013.8
20260906120258 21 157 0.0 0.0 0.00 0.18 0.00 89 1013.9
20260906120157 21 156 0.0 0.0 0.00 0.18 0.00 89 1013.9
20260906120104 21 157 0.0 0.0 0.00 0.18 0.00 89 1013.1
20260906120058 21 157 0.0 0.0 0.00 0.18 0.00 89 1013.8
20260906115958 21 157 0.0 0.0 0.00 0.18 0.00 89 1013.8
20260906115758 21 156 0.0 0.0 0.00 0.18 0.00 89 1013.8
20260906115557 21 157 0.0 0.0 0.00 0.18 0.00 89 1013.8
20260906115458 21 156 0.0 0.0 0.00 0.18 0.00 89 1013.9
20260906115357 21 157 0.0 0.0 0.00 0.18 0.00 89 1013.9
20260906115258 21 157 0.0 0.0 0.00 0.18 0.00 89 1013.8
20260906115157 21 156 0.0 0.0 0.00 0.18 0.00 89 1013.9
20260906114958 21 156 0.0 0.0 0.00 0.18 0.00 89 1013.9
20260906114858 21 156 0.0 0.0 0.00 0.18 0.00 89 1014.0
20260906114557 21 156 0.0 0.0 0.00 0.18 0.00 89 1013.8
20260906114358 21 156 0.0 0.0 0.00 0.18 0.00 89 1013.9
20260906114258 21 156 0.0 0.0 0.00 0.18 0.00 89 1013.8
20260906114157 21 156 0.0 0.0 0.00 0.18 0.00 89 1013.8
20260906114057 21 157 0.0 0.0 0.00 0.18 0.00 89 1013.9
20260906113958 21 156 0.0 0.0 0.00 0.18 0.00 89 1013.9
20260906113857 21 156 0.0 0.0 0.00 0.18 0.00 89 1013.8
20260906113758 21 156 0.0 0.0 0.00 0.18 0.00 89 1013.8
20260906113658 21 157 0.0 0.0 0.00 0.18 0.00 89 1013.8
20260906113557 21 157 0.0 0.0 0.00 0.18 0.00 89 1013.8
20260906113458 21 157 0.0 0.0 0.00 0.18 0.00 89 1013.8
20260906113257 21 156 0.0 0.0 0.00 0.18 0.00 89 1013.7
20260906113157 21 157 0.0 0.0 0.00 0.18 0.00 89 1013.7
20260906113058 21 156 0.0 0.0 0.00 0.18 0.00 89 1012.9
20260906112957 21 157 0.0 0.0 0.00 0.18 0.00 89 1013.7
20260906112857 21 157 0.0 0.0 0.00 0.18 0.00 89 1013.5
20260906112757 21 156 0.0 0.0 0.00 0.18 0.00 89 1013.7
20260906112658 21 157 0.0 0.0 0.00 0.18 0.00 89 1013.7
20260906112558 21 156 0.0 0.0 0.00 0.18 0.00 89 1013.6
20260906112458 21 156 0.0 0.0 0.00 0.18 0.00 89 1013.6
20260906112358 21 156 0.0 0.0 0.00 0.18 0.00 89 1013.6
20260906112257 21 157 0.0 0.0 0.00 0.18 0.00 89 1013.7
20260906112058 21 156 0.0 0.0 0.00 0.18 0.00 89 1013.6
20260906111958 21 157 0.0 0.0 0.00 0.18 0.00 89 1013.6
20260906111857 21 156 0.0 0.0 0.00 0.18 0.00 89 1013.6
20260906111757 21 157 0.0 0.0 0.00 0.18 0.00 89 1013.6
20260906111658 21 157 0.0 0.0 0.00 0.18 0.00 89 1013.6
20260906111557 21 157 0.0 0.0 0.00 0.18 0.00 89 1012.9
20260906111458 21 157 0.0 0.0 0.00 0.18 0.00 89 1013.7
20260906111258 21 157 0.0 0.0 0.00 0.18 0.00 89 1013.7
20260906111159 21 156 0.0 0.0 0.00 0.18 0.00 89 1013.6
20260906111057 21 156 0.0 0.0 0.00 0.18 0.00 89 1013.6
20260906110957 21 156 0.0 0.0 0.00 0.18 0.00 89 1013.6
20260906110858 21 157 0.0 0.0 0.00 0.18 0.00 89 1013.5
20260906110757 21 157 0.0 0.0 0.00 0.18 0.00 89 1013.5
20260906110658 21 157 0.0 0.0 0.00 0.18 0.00 89 1013.5
20260906110557 21 156 0.0 0.0 0.00 0.18 0.00 89 1013.4
20260906110500 21 157 0.0 0.0 0.00 0.18 0.00 89 1013.4
20260906110358 21 157 0.0 0.0 0.00 0.18 0.00 89 1013.4
20260906110258 21 156 0.0 0.0 0.00 0.18 0.00 89 1013.3
20260906110100 21 156 0.0 0.0 0.00 0.18 0.00 89 1012.6
20260906110058 21 156 0.0 0.0 0.00 0.18 0.00 89 1013.3
20260906105959 21 157 0.0 0.0 0.00 0.18 0.00 89 1013.3
20260906105857 21 157 0.0 0.0 0.00 0.18 0.00 89 1013.3
20260906105758 21 156 0.0 0.0 0.00 0.18 0.00 89 1013.2
20260906105557 21 157 0.0 0.0 0.00 0.18 0.00 89 1013.3
20260906105458 21 157 0.0 0.0 0.00 0.18 0.00 89 1013.2
20260906105358 21 156 0.0 0.0 0.00 0.18 0.00 89 1013.4
20260906105158 21 156 0.0 0.0 0.00 0.18 0.00 89 1013.3
20260906104957 21 156 0.0 0.0 0.00 0.18 0.00 89 1013.3
20260906104857 21 195 0.0 0.0 0.00 0.18 0.00 89 1013.2
20260906104757 21 196 0.0 0.0 0.00 0.18 0.00 89 1013.2
20260906104659 21 196 0.0 0.0 0.00 0.18 0.00 89 1013.2
20260906104558 21 195 0.0 0.0 0.00 0.18 0.00 89 1013.2
20260906104457 21 195 0.0 0.0 0.00 0.18 0.00 89 1013.2
20260906104357 21 196 0.0 0.0 0.00 0.18 0.00 89 1013.2
20260906104257 21 195 0.0 0.0 0.00 0.18 0.00 89 1013.2
20260906104158 21 195 0.0 0.0 0.00 0.18 0.00 89 1013.2
20260906104058 21 195 0.0 0.0 0.00 0.18 0.00 89 1013.2
20260906103956 21 195 0.0 0.0 0.00 0.18 0.00 89 1013.1
20260906103857 21 196 0.0 0.0 0.00 0.18 0.00 89 1013.1
20260906103757 21 195 0.0 0.0 0.00 0.18 0.00 89 1013.2
20260906103557 21 196 0.0 0.0 0.00 0.18 0.00 89 1013.0
20260906103458 21 196 0.0 0.0 0.00 0.18 0.00 89 1013.1
20260906103357 21 195 0.0 0.0 0.00 0.18 0.00 89 1013.0
20260906103259 21 195 0.0 0.0 0.00 0.18 0.00 89 1013.1
20260906103058 21 195 0.0 0.0 0.00 0.18 0.00 90 1013.0
20260906102958 21 195 0.0 0.0 0.00 0.18 0.00 90 1013.0
20260906102857 21 195 0.0 0.0 0.00 0.18 0.00 90 1013.0
20260906102758 21 195 0.0 0.0 0.00 0.18 0.00 90 1013.0
20260906102657 21 195 0.0 0.0 0.00 0.18 0.00 90 1013.0
20260906102557 21 195 0.0 0.0 0.00 0.18 0.00 90 1013.0
20260906102457 21 196 0.0 0.0 0.00 0.18 0.00 90 1013.0
20260906102357 21 195 0.0 0.0 0.00 0.18 0.00 90 1012.9
20260906102257 21 195 0.0 0.0 0.00 0.18 0.00 90 1013.0
20260906102158 21 195 0.0 0.0 0.00 0.18 0.00 90 1013.0
20260906101957 21 195 0.0 0.0 0.00 0.18 0.00 90 1012.9
20260906101857 21 195 0.0 0.0 0.00 0.18 0.00 90 1013.1
20260906101758 21 196 0.0 0.0 0.00 0.18 0.00 90 1013.1
20260906101659 21 195 0.0 0.0 0.00 0.18 0.00 90 1013.0
20260906101558 21 195 0.0 0.0 0.00 0.18 0.00 90 1013.0
20260906101357 21 195 0.0 0.0 0.00 0.18 0.00 90 1012.9
20260906101258 21 195 0.0 0.0 0.00 0.18 0.00 90 1013.0
20260906101157 21 195 0.0 0.0 0.00 0.18 0.00 90 1012.9
20260906100958 21 195 0.0 0.0 0.00 0.18 0.00 90 1012.8
20260906100857 21 196 0.0 0.0 0.00 0.18 0.00 90 1012.8
20260906100758 21 195 0.0 0.0 0.00 0.18 0.00 90 1012.8
20260906100657 21 195 0.0 0.0 0.00 0.18 0.00 90 1012.8
20260906100557 21 196 0.0 0.0 0.00 0.18 0.00 90 1012.8
20260906100457 21 195 0.0 0.0 0.00 0.18 0.00 90 1012.7
20260906100358 21 196 0.0 0.0 0.00 0.18 0.00 90 1012.7
20260906100257 21 195 0.0 0.0 0.00 0.18 0.00 90 1012.8
20260906100158 21 195 0.0 0.0 0.00 0.18 0.00 90 1012.8
20260906100058 21 195 0.0 0.0 0.00 0.18 0.00 90 1012.7
20260906095957 21 195 0.0 0.0 0.00 0.18 0.00 90 1012.7
20260906095859 21 196 0.0 0.0 0.00 0.18 0.00 90 1012.7
20260906095758 21 196 0.0 0.0 0.00 0.18 0.00 90 1012.7
20260906095657 21 196 0.0 0.0 0.00 0.18 0.00 90 1012.8
20260906095558 21 195 0.0 0.0 0.00 0.18 0.00 90 1012.7
20260906095456 21 195 0.0 0.0 0.00 0.18 0.00 90 1012.7
20260906095158 21 195 0.0 0.0 0.00 0.18 0.00 90 1012.6
20260906094957 21 195 0.0 0.0 0.00 0.18 0.00 90 1012.6
20260906094857 21 195 0.0 0.0 0.00 0.18 0.00 90 1012.6
20260906094658 21 196 0.0 0.0 0.00 0.18 0.00 90 1012.6
20260906094557 21 195 0.0 0.0 0.00 0.18 0.00 90 1011.8
20260906094457 21 195 0.0 0.0 0.00 0.18 0.00 90 1012.6
20260906094358 21 195 0.0 0.0 0.00 0.18 0.00 90 1012.6
20260906094157 21 195 0.0 0.0 0.00 0.18 0.00 90 1012.5
20260906094058 21 195 0.0 0.0 0.00 0.18 0.00 90 1012.5
20260906093958 21 195 0.0 0.0 0.00 0.18 0.00 90 1012.4
20260906093858 21 195 0.0 0.0 0.00 0.18 0.00 90 1012.5
20260906093758 21 195 0.0 0.0 0.00 0.18 0.00 90 1012.4
20260906093657 21 195 0.0 0.0 0.00 0.18 0.00 90 1012.4
20260906093558 21 195 0.0 0.0 0.00 0.18 0.00 90 1012.5
20260906093458 21 195 0.0 0.0 0.00 0.18 0.00 90 1012.4
20260906093358 21 196 0.0 0.0 0.00 0.18 0.00 90 1012.3
20260906093258 21 195 0.0 0.0 0.00 0.18 0.00 90 1012.4
20260906093158 21 196 0.0 0.0 0.00 0.18 0.00 90 1012.4
20260906093115 21 195 0.0 0.0 0.00 0.18 0.00 90 1011.6
20260906093058 21 195 0.0 0.0 0.00 0.18 0.00 90 1012.4
20260906092958 21 195 0.0 0.0 0.00 0.18 0.00 90 1012.4
20260906092857 21 195 0.0 0.0 0.00 0.18 0.00 90 1012.3
20260906092759 21 195 0.0 0.0 0.00 0.18 0.00 90 1012.3
20260906092657 21 196 0.0 0.0 0.00 0.18 0.00 90 1012.2
20260906092558 21 196 0.0 0.0 0.00 0.18 0.00 90 1012.3
20260906092357 21 196 0.0 0.0 0.00 0.18 0.00 90 1012.3
20260906092057 21 195 0.0 0.0 0.00 0.18 0.00 90 1012.1
20260906091957 21 195 0.0 0.0 0.00 0.18 0.00 90 1012.0
20260906091859 21 195 0.0 0.0 0.00 0.18 0.00 90 1012.2
20260906091757 21 195 0.0 0.0 0.00 0.18 0.00 90 1012.1
20260906091657 21 195 0.0 0.0 0.00 0.18 0.00 90 1012.1
20260906091558 21 195 0.0 0.0 0.00 0.18 0.00 90 1011.3
20260906091457 21 195 0.0 0.0 0.00 0.18 0.00 90 1012.0
20260906091357 21 195 0.0 0.0 0.00 0.18 0.00 90 1012.1
20260906091257 21 195 0.0 0.0 0.00 0.18 0.00 90 1012.1
20260906091157 21 195 0.0 0.0 0.00 0.18 0.00 90 1012.1
20260906091057 21 195 0.0 0.0 0.00 0.18 0.00 90 1011.9
20260906090957 21 195 0.0 0.0 0.00 0.18 0.00 90 1012.0
20260906090858 21 196 0.0 0.0 0.00 0.18 0.00 90 1012.0
20260906090757 21 195 0.0 0.0 0.00 0.18 0.00 90 1012.0
20260906090658 21 196 0.0 0.0 0.00 0.18 0.00 90 1011.9
20260906090557 21 196 0.0 0.0 0.00 0.18 0.00 90 1011.9
20260906090458 21 195 0.0 0.0 0.00 0.18 0.00 90 1011.8
20260906090358 21 195 0.0 0.0 0.00 0.18 0.00 90 1011.7
20260906090257 21 196 0.0 0.0 0.00 0.18 0.00 90 1011.8
20260906090157 21 197 0.0 0.0 0.00 0.18 0.00 90 1011.8
20260906090113 21 197 0.0 0.0 0.00 0.18 0.00 90 1011.0
20260906090057 21 197 0.0 0.0 0.00 0.18 0.00 90 1011.8
20260906085958 21 197 0.0 0.0 0.00 0.18 0.00 90 1011.8
20260906085857 21 197 0.0 0.0 0.00 0.18 0.00 90 1011.8
20260906085757 21 197 0.0 0.0 0.00 0.18 0.00 90 1011.9
20260906085657 21 197 0.0 0.0 0.00 0.18 0.00 90 1011.8
20260906085558 21 197 0.0 0.0 0.00 0.18 0.00 90 1011.8
20260906085457 21 197 0.0 0.0 0.00 0.18 0.00 90 1011.7
20260906085357 21 197 0.0 0.0 0.00 0.18 0.00 90 1011.8
20260906085257 21 197 0.0 0.0 0.00 0.18 0.00 90 1011.9
20260906085158 21 197 0.0 0.0 0.00 0.18 0.00 90 1011.8
20260906085058 21 197 0.0 0.0 0.00 0.18 0.00 90 1011.8
20260906084858 21 197 0.0 0.0 0.00 0.18 0.00 90 1011.8
20260906084757 21 197 0.0 0.0 0.00 0.18 0.00 90 1011.8
20260906084657 21 197 0.0 0.0 0.00 0.18 0.00 90 1011.8
20260906084558 21 197 0.0 0.0 0.00 0.18 0.00 90 1011.0
20260906084357 21 197 0.0 0.0 0.00 0.18 0.00 90 1011.7
20260906084257 21 197 0.0 0.0 0.00 0.18 0.00 90 1011.8
20260906084057 21 197 0.0 0.0 0.00 0.18 0.00 90 1011.7
20260906083957 21 197 0.0 0.0 0.00 0.18 0.00 90 1011.7
20260906083857 21 197 0.0 0.0 0.00 0.18 0.00 90 1011.7
20260906083757 21 197 0.0 0.0 0.00 0.18 0.00 90 1011.7
20260906083657 21 197 0.0 0.0 0.00 0.18 0.00 90 1011.7
20260906083557 21 197 0.0 0.0 0.00 0.18 0.00 90 1011.8
20260906083457 21 197 0.0 0.0 0.00 0.18 0.00 90 1011.8
20260906083158 21 197 0.0 0.0 0.00 0.18 0.00 90 1011.8
20260906083057 21 197 0.0 0.0 0.00 0.18 0.00 90 1011.1
20260906082957 21 197 0.0 0.0 0.00 0.18 0.00 90 1011.8
20260906082857 21 197 0.0 0.0 0.00 0.18 0.00 90 1011.8
20260906082758 21 197 0.0 0.0 0.00 0.18 0.00 90 1011.8
20260906082657 21 197 0.0 0.0 0.00 0.18 0.00 90 1011.8
20260906082557 21 197 0.0 0.0 0.00 0.18 0.00 90 1011.8
20260906082457 21 197 0.0 0.0 0.00 0.18 0.00 90 1011.9
20260906082357 21 197 0.0 0.0 0.00 0.18 0.00 90 1011.9
20260906082257 21 197 0.0 0.0 0.00 0.18 0.00 90 1011.9
20260906082157 21 197 0.0 0.0 0.00 0.18 0.00 90 1011.9
20260906082057 21 197 0.0 0.0 0.00 0.18 0.00 90 1011.9
20260906081958 21 197 0.0 0.0 0.00 0.18 0.00 90 1011.8
20260906081858 21 197 0.0 0.0 0.00 0.18 0.00 90 1011.9
20260906081757 21 197 0.0 0.0 0.00 0.18 0.00 90 1011.8
20260906081657 21 197 0.0 0.0 0.00 0.18 0.00 90 1011.8
20260906081559 21 197 0.0 0.0 0.00 0.18 0.00 90 1011.0
20260906081557 21 197 0.0 0.0 0.00 0.18 0.00 90 1011.7
20260906081457 21 197 0.0 0.0 0.00 0.18 0.00 90 1011.8
20260906080958 21 197 0.0 0.0 0.00 0.18 0.00 90 1011.7
20260906080857 21 197 0.0 0.0 0.00 0.18 0.00 90 1011.6
20260906080757 21 197 0.0 0.0 0.00 0.18 0.00 90 1011.6
20260906080659 21 197 0.0 0.0 0.00 0.18 0.00 90 1011.7
20260906080559 21 197 0.0 0.0 0.00 0.18 0.00 90 1011.7
20260906080457 21 197 0.0 0.0 0.00 0.18 0.00 90 1011.7
20260906080257 21 197 0.0 0.0 0.00 0.18 0.00 90 1011.7
20260906080157 21 197 0.0 0.0 0.00 0.18 0.00 90 1011.6
20260906080057 21 197 0.0 0.0 0.00 0.18 0.00 90 1011.7
20260906075957 21 197 0.0 0.0 0.00 0.18 0.00 90 1011.7
20260906075858 21 197 0.0 0.0 0.00 0.18 0.00 90 1011.8
20260906075757 21 197 0.0 0.0 0.00 0.18 0.00 90 1011.6
20260906075657 21 197 0.0 0.0 0.00 0.18 0.00 90 1011.7
20260906075557 21 197 0.0 0.0 0.00 0.18 0.00 90 1011.7
20260906075458 21 197 0.0 0.0 0.00 0.18 0.00 90 1011.7
20260906075358 21 197 0.0 0.0 0.00 0.18 0.00 90 1011.7
20260906075257 21 197 0.0 0.0 0.00 0.18 0.00 90 1011.7
20260906075158 21 197 0.0 0.0 0.00 0.18 0.00 90 1011.7
20260906075058 21 197 0.0 0.0 0.00 0.18 0.00 90 1011.7
20260906074957 21 197 0.0 0.0 0.00 0.18 0.00 90 1011.7
20260906074757 21 197 0.0 0.0 0.00 0.18 0.00 90 1011.5
20260906074658 21 197 0.0 0.0 0.00 0.18 0.00 90 1011.6
20260906074558 21 197 0.0 0.0 0.00 0.18 0.00 90 1010.8
20260906074457 21 197 0.0 0.0 0.00 0.18 0.00 90 1011.5
20260906074357 21 197 0.0 0.0 0.00 0.18 0.00 90 1011.5
20260906074257 21 197 0.0 0.0 0.00 0.18 0.00 90 1011.5
20260906074158 21 197 0.0 0.0 0.00 0.18 0.00 90 1011.5
20260906074057 21 197 0.0 0.0 0.00 0.18 0.00 90 1011.4
20260906073957 21 197 0.0 0.0 0.00 0.18 0.00 90 1011.5
20260906073858 21 197 0.0 0.0 0.00 0.18 0.00 90 1011.5
20260906073758 21 197 0.0 0.0 0.00 0.18 0.00 90 1011.5
20260906073557 21 197 0.0 0.0 0.00 0.18 0.00 90 1011.5
20260906073458 21 197 0.0 0.0 0.00 0.18 0.00 90 1011.4
20260906073357 21 197 0.0 0.0 0.00 0.18 0.00 90 1011.5
20260906073257 21 197 0.0 0.0 0.00 0.18 0.00 90 1011.5
20260906073159 21 197 0.0 0.0 0.00 0.18 0.00 90 1011.5
20260906073057 21 197 0.0 0.0 0.00 0.18 0.00 90 1011.4
20260906072857 21 197 0.0 0.0 0.00 0.18 0.00 90 1011.5
20260906072757 21 197 0.0 0.0 0.00 0.18 0.00 90 1011.6
20260906072657 21 197 0.0 0.0 0.00 0.18 0.00 90 1011.6
20260906072558 21 197 0.0 0.0 0.00 0.18 0.00 90 1011.4
20260906072457 21 197 0.0 0.0 0.00 0.18 0.00 90 1011.6
20260906072358 21 197 0.0 0.0 0.00 0.18 0.00 90 1011.6
20260906072257 21 197 0.0 0.0 0.00 0.18 0.00 90 1011.5
20260906072157 21 197 0.0 0.0 0.00 0.18 0.00 90 1011.6
20260906072057 21 197 0.0 0.0 0.00 0.18 0.00 90 1011.4
20260906071957 21 197 0.0 0.0 0.00 0.18 0.00 90 1011.5
20260906071857 21 197 0.0 0.0 0.00 0.18 0.00 90 1011.4
20260906071757 21 197 0.0 0.0 0.00 0.18 0.00 90 1011.4
20260906071606 21 197 0.0 0.0 0.00 0.18 0.00 90 1010.7
20260906071557 21 197 0.0 0.0 0.00 0.18 0.00 90 1011.4
20260906071457 21 197 0.0 0.0 0.00 0.18 0.00 90 1011.4
20260906071258 21 197 0.0 0.0 0.00 0.18 0.00 90 1011.5
20260906071156 21 197 0.0 0.0 0.00 0.18 0.00 90 1011.5
20260906071057 21 197 0.0 0.0 0.00 0.18 0.00 90 1011.5
20260906070857 21 197 0.0 0.0 0.00 0.18 0.00 90 1011.4
20260906070658 21 197 0.0 0.0 0.00 0.18 0.00 90 1011.3
20260906070557 21 197 0.0 0.0 0.00 0.18 0.00 90 1011.3
20260906070456 21 197 0.0 0.0 0.00 0.18 0.00 90 1011.3
20260906070357 21 197 0.0 0.0 0.00 0.18 0.00 90 1011.3
20260906070157 21 197 0.0 0.0 0.00 0.18 0.00 90 1011.4
20260906070058 21 197 0.0 0.0 0.00 0.18 0.00 89 1011.3
20260906065958 21 197 0.0 0.0 0.00 0.18 0.00 89 1011.3
20260906065857 21 197 0.0 0.0 0.00 0.18 0.00 89 1011.4
20260906065759 21 197 0.0 0.0 0.00 0.18 0.00 90 1011.4
20260906065657 21 197 0.0 0.0 0.00 0.18 0.00 89 1011.4
20260906065457 21 197 0.0 0.0 0.00 0.18 0.00 89 1011.4
20260906065356 21 197 0.0 0.0 0.00 0.18 0.00 89 1011.5
20260906065157 21 197 0.0 0.0 0.00 0.18 0.00 89 1011.6
20260906065058 21 197 0.0 0.0 0.00 0.18 0.00 89 1011.6
20260906064957 21 197 0.0 0.0 0.00 0.18 0.00 89 1011.5
20260906064857 21 197 0.0 0.0 0.00 0.18 0.00 89 1011.6
20260906064758 21 197 0.0 0.0 0.00 0.18 0.00 89 1011.6
20260906064657 21 197 0.0 0.0 0.00 0.18 0.00 89 1011.6
20260906064558 21 197 0.0 0.0 0.00 0.18 0.00 89 1011.7
20260906064458 21 197 0.0 0.0 0.00 0.18 0.00 89 1011.7
20260906064358 21 197 0.0 0.0 0.00 0.18 0.00 89 1011.7
20260906064157 21 197 0.0 0.0 0.00 0.18 0.00 89 1011.8
20260906063957 21 197 0.0 0.0 0.00 0.18 0.00 89 1011.7
20260906063856 21 197 0.0 0.0 0.00 0.18 0.00 89 1011.6
20260906063657 21 197 0.0 0.0 0.00 0.18 0.00 89 1011.7
20260906063557 21 197 0.0 0.0 0.00 0.18 0.00 89 1011.8
20260906063356 21 197 0.0 0.0 0.00 0.18 0.00 89 1011.7
20260906063258 21 197 0.0 0.0 0.00 0.18 0.00 89 1011.7
20260906063158 21 197 0.0 0.0 0.00 0.18 0.00 89 1011.7
20260906063101 21 197 0.0 0.0 0.00 0.18 0.00 89 1010.9
20260906063058 21 197 0.0 0.0 0.00 0.18 0.00 89 1011.7
20260906062958 21 197 0.0 0.0 0.00 0.18 0.00 89 1011.7
20260906062857 21 197 0.0 0.0 0.00 0.18 0.00 89 1011.7
20260906062800 21 197 0.0 0.0 0.00 0.18 0.00 89 1011.6
20260906062657 21 197 0.0 0.0 0.00 0.18 0.00 89 1011.6
20260906062558 21 197 0.0 0.0 0.00 0.18 0.00 89 1011.6
20260906062457 21 197 0.0 0.0 0.00 0.18 0.00 89 1011.6
20260906062257 21 197 0.0 0.0 0.00 0.18 0.00 89 1011.7
20260906062156 21 197 0.0 0.0 0.00 0.18 0.00 89 1011.7
20260906062058 21 197 0.0 0.0 0.00 0.18 0.00 89 1011.6
20260906061957 21 197 0.0 0.0 0.00 0.18 0.00 89 1011.7
20260906061858 21 197 0.0 0.0 0.00 0.18 0.00 89 1011.7
20260906061758 21 197 0.0 0.0 0.00 0.18 0.00 89 1011.7
20260906061658 21 197 0.0 0.0 0.00 0.18 0.00 89 1011.6
20260906061558 21 197 0.0 0.0 0.00 0.18 0.00 89 1011.6
20260906061459 21 197 0.0 0.0 0.00 0.18 0.00 89 1011.6
20260906061258 21 197 0.0 0.0 0.00 0.18 0.00 89 1011.6
20260906061158 21 197 0.0 0.0 0.00 0.18 0.00 89 1011.7
20260906061058 21 197 0.0 0.0 0.00 0.18 0.00 89 1011.6
20260906060957 21 197 0.0 0.0 0.00 0.18 0.00 89 1011.6
20260906060757 21 197 0.0 0.0 0.00 0.18 0.00 89 1011.6
20260906060659 21 197 0.0 0.0 0.00 0.18 0.00 89 1011.6
20260906060557 21 197 0.0 0.0 0.00 0.18 0.00 89 1011.7
20260906060158 21 197 0.0 0.0 0.00 0.18 0.00 89 1011.6
20260906060058 21 197 0.0 0.0 0.00 0.18 0.00 89 1011.6
20260906055957 21 197 0.0 0.0 0.00 0.18 0.00 89 1011.7
20260906055756 21 197 0.0 0.0 0.00 0.18 0.00 89 1011.7
20260906055556 21 197 0.0 0.0 0.00 0.18 0.00 89 1011.7
20260906055457 21 197 0.0 0.0 0.00 0.18 0.00 89 1011.7
20260906055356 21 197 0.0 0.0 0.00 0.18 0.00 89 1011.7
20260906055256 21 197 0.0 0.0 0.00 0.18 0.00 89 1011.9
20260906055157 21 197 0.0 0.0 0.00 0.18 0.00 89 1011.8
20260906055056 21 197 0.0 0.0 0.00 0.18 0.00 89 1011.8
20260906054955 21 197 0.0 0.0 0.00 0.18 0.00 89 1011.9
20260906054856 21 197 0.0 0.0 0.00 0.18 0.00 89 1011.9
20260906054656 21 197 0.0 0.0 0.00 0.18 0.00 89 1011.8
20260906054558 21 197 0.0 0.0 0.00 0.18 0.00 89 1011.1
20260906054457 21 197 0.0 0.0 0.00 0.18 0.00 89 1011.9
20260906054357 21 197 0.0 0.0 0.00 0.18 0.00 89 1011.8
20260906054256 21 197 0.0 0.0 0.00 0.18 0.00 89 1011.9
20260906054156 21 197 0.0 0.0 0.00 0.18 0.00 89 1011.8
20260906054055 21 197 0.0 0.0 0.00 0.18 0.00 89 1011.9
20260906053957 21 197 0.0 0.0 0.00 0.18 0.00 89 1011.8
20260906053757 21 197 0.0 0.0 0.00 0.18 0.00 89 1011.9
20260906053656 21 197 0.0 0.0 0.00 0.18 0.00 89 1011.9
20260906053556 21 197 0.0 0.0 0.00 0.18 0.00 89 1012.0
20260906053456 21 197 0.0 0.0 0.00 0.18 0.00 89 1012.0
20260906053357 21 197 0.0 0.0 0.00 0.18 0.00 89 1011.9
20260906053257 21 197 0.0 0.0 0.00 0.18 0.00 89 1012.0
20260906053056 21 197 0.0 0.0 0.00 0.18 0.00 89 1011.3
20260906052956 21 197 0.0 0.0 0.00 0.18 0.00 89 1012.1
20260906052757 21 197 0.0 0.0 0.00 0.18 0.00 89 1012.2
20260906052656 21 197 0.0 0.0 0.00 0.18 0.00 89 1012.2
20260906052356 21 197 0.0 0.0 0.00 0.18 0.00 89 1012.2
20260906052256 21 197 0.0 0.0 0.00 0.18 0.00 89 1012.3
20260906052057 21 197 0.0 0.0 0.00 0.18 0.00 89 1012.2
20260906051955 21 197 0.0 0.0 0.00 0.18 0.00 89 1012.3
20260906051656 21 197 0.0 0.0 0.00 0.18 0.00 89 1012.2
20260906051556 21 197 0.0 0.0 0.00 0.18 0.00 89 1011.4
20260906051456 21 197 0.0 0.0 0.00 0.18 0.00 89 1012.3
20260906051057 21 197 0.0 0.0 0.00 0.18 0.00 89 1012.2
20260906050957 21 197 0.0 0.0 0.00 0.18 0.00 89 1012.2
20260906050856 21 197 0.0 0.0 0.00 0.18 0.00 89 1012.3
20260906050756 21 197 0.0 0.0 0.00 0.18 0.00 89 1012.2
20260906050656 22 197 0.0 0.0 0.00 0.18 0.00 89 1012.2
20260906050556 22 197 0.0 0.0 0.00 0.18 0.00 89 1012.3
20260906050456 22 197 0.0 0.0 0.00 0.18 0.00 89 1012.2
20260906050356 22 197 0.0 0.0 0.00 0.18 0.00 89 1012.3
20260906050256 22 197 0.0 0.0 0.00 0.18 0.00 89 1012.3
20260906050156 22 197 0.0 0.0 0.00 0.18 0.00 89 1012.3
20260906050116 22 197 0.0 0.0 0.00 0.18 0.00 89 1011.4
20260906050057 22 197 0.0 0.0 0.00 0.18 0.00 89 1012.3
20260906045959 22 197 0.0 0.0 0.00 0.18 0.00 89 1012.3
20260906045757 22 197 0.0 0.0 0.00 0.18 0.00 89 1012.4
20260906045658 22 197 0.0 0.0 0.00 0.18 0.00 89 1012.4
20260906045457 22 197 0.0 0.0 0.00 0.18 0.00 89 1012.4
20260906045356 22 197 0.0 0.0 0.00 0.18 0.00 89 1012.4
20260906045258 22 197 0.0 0.0 0.00 0.18 0.00 89 1012.4
20260906045159 22 197 0.0 0.0 0.00 0.18 0.00 89 1012.4
20260906045057 22 197 0.0 0.0 0.00 0.18 0.00 89 1012.4
20260906044957 22 197 0.0 0.0 0.00 0.18 0.00 89 1012.4
20260906044859 22 197 0.0 0.0 0.00 0.18 0.00 89 1012.3
20260906044757 22 197 0.0 0.0 0.00 0.18 0.00 89 1012.4
20260906044657 22 197 0.0 0.0 0.00 0.18 0.00 89 1012.4
20260906044557 22 197 0.0 0.0 0.00 0.18 0.00 89 1012.4
20260906044458 22 197 0.0 0.0 0.00 0.18 0.00 89 1012.4
20260906044357 22 197 0.0 0.0 0.00 0.18 0.00 89 1012.5
20260906044258 22 197 0.0 0.0 0.00 0.18 0.00 89 1012.4
20260906044158 22 197 0.0 0.0 0.00 0.18 0.00 89 1012.4
20260906044058 22 197 0.0 0.0 0.00 0.18 0.00 89 1012.3
20260906043957 22 197 0.0 0.0 0.00 0.18 0.00 89 1012.4
20260906043900 22 197 0.0 0.0 0.00 0.18 0.00 89 1012.3
20260906043757 22 197 0.0 0.0 0.00 0.18 0.00 89 1012.4
20260906043658 22 197 0.0 0.0 0.00 0.18 0.00 89 1012.4
20260906043557 22 197 0.0 0.0 0.00 0.18 0.00 89 1012.4
20260906043458 22 197 0.0 0.0 0.00 0.18 0.00 89 1012.5
20260906043357 22 197 0.0 0.0 0.00 0.18 0.00 89 1012.6
20260906043256 22 197 0.0 0.0 0.00 0.18 0.00 89 1012.5
20260906043158 22 197 0.0 0.0 0.00 0.18 0.00 89 1012.4
20260906043108 22 197 0.0 0.0 0.00 0.18 0.00 89 1011.8
20260906043059 22 197 0.0 0.0 0.00 0.18 0.00 89 1012.6
20260906042957 22 197 0.0 0.0 0.00 0.18 0.00 89 1012.6
20260906042857 22 197 0.0 0.0 0.00 0.18 0.00 89 1012.6
20260906042757 22 197 0.0 0.0 0.00 0.18 0.00 89 1012.6
20260906042658 22 197 0.0 0.0 0.00 0.18 0.00 89 1012.5
20260906042557 22 197 0.0 0.0 0.00 0.18 0.00 89 1012.6
20260906042458 22 197 0.0 0.0 0.00 0.18 0.00 89 1012.6
20260906042357 22 197 0.0 0.0 0.00 0.18 0.00 89 1012.6
20260906042257 22 197 0.0 0.0 0.00 0.18 0.00 89 1012.6
20260906041957 22 197 0.0 0.0 0.00 0.18 0.00 89 1012.6
20260906041857 22 197 0.0 0.0 0.00 0.18 0.00 89 1012.7
20260906041758 22 197 0.0 0.0 0.00 0.18 0.00 89 1012.6
20260906041656 22 197 0.0 0.0 0.00 0.18 0.00 89 1012.6
20260906041557 22 197 0.0 0.0 0.00 0.18 0.00 89 1012.0
20260906041457 22 197 0.0 0.0 0.00 0.18 0.00 89 1012.6
20260906041357 22 197 0.0 0.0 0.00 0.18 0.00 89 1012.7
20260906041257 22 197 0.0 0.0 0.00 0.18 0.00 89 1012.6
20260906041158 22 197 0.0 0.0 0.00 0.18 0.00 89 1012.7
20260906041057 22 198 0.0 0.0 0.00 0.18 0.00 89 1012.7
20260906040858 22 197 0.0 0.0 0.00 0.18 0.00 89 1012.8
20260906040757 22 197 0.0 0.0 0.00 0.18 0.00 89 1012.7
20260906040657 22 197 0.0 0.0 0.00 0.18 0.00 89 1012.8
20260906040557 22 197 0.0 0.0 0.00 0.18 0.00 89 1012.9
20260906040457 22 197 0.0 0.0 0.00 0.18 0.00 89 1012.7
20260906040357 22 197 0.0 0.0 0.00 0.18 0.00 89 1012.8
20260906040257 22 198 0.0 0.0 0.00 0.18 0.00 89 1012.8
20260906040159 22 197 0.0 0.0 0.00 0.18 0.00 89 1012.8
20260906040100 22 197 0.0 0.0 0.00 0.18 0.00 89 1012.0
20260906040059 22 197 0.0 0.0 0.00 0.18 0.00 89 1012.7
20260906035959 22 195 0.0 0.0 0.00 0.18 0.18 89 1012.8
20260906035859 22 196 0.0 0.0 0.00 0.18 0.18 89 1012.8
20260906035759 22 195 0.0 0.0 0.00 0.18 0.18 89 1012.8
20260906035700 22 195 0.0 0.0 0.00 0.18 0.18 89 1012.8
20260906035600 22 195 0.0 0.0 0.00 0.18 0.18 89 1012.8
20260906035459 22 195 0.0 0.0 0.00 0.18 0.18 89 1012.7
20260906035359 22 195 0.0 0.0 0.00 0.18 0.18 89 1012.8
20260906035301 22 195 0.0 0.0 0.00 0.18 0.18 89 1012.7
20260906035159 22 195 0.0 0.0 0.00 0.18 0.18 89 1012.7
20260906035059 22 195 0.0 0.0 0.00 0.18 0.18 89 1012.8
20260906034859 22 195 0.0 0.0 0.00 0.18 0.18 89 1012.6
20260906034759 22 195 0.0 0.0 0.00 0.18 0.18 89 1012.7
20260906034658 22 195 0.0 0.0 0.00 0.18 0.18 89 1012.7
20260906034559 22 195 0.0 0.0 0.00 0.18 0.18 89 1011.8
20260906034459 22 195 0.0 0.0 0.00 0.18 0.18 89 1012.7
20260906034359 22 195 0.0 0.0 0.00 0.18 0.18 89 1012.6
20260906034200 22 196 0.0 0.0 0.00 0.18 0.18 89 1012.6
20260906033859 22 197 0.0 0.0 0.00 0.18 0.18 89 1012.5
20260906033559 22 197 0.0 0.0 0.00 0.18 0.18 89 1012.7
20260906033500 22 197 0.0 0.0 0.00 0.18 0.18 89 1012.6
20260906033359 22 197 0.0 0.0 0.00 0.18 0.18 89 1012.7
20260906033259 22 197 0.0 0.0 0.00 0.18 0.18 89 1012.7
20260906033159 22 197 0.0 0.0 0.00 0.18 0.18 89 1012.7
20260906033059 22 197 0.0 0.0 0.00 0.18 0.18 89 1012.0
20260906032859 22 197 0.0 0.0 0.00 0.18 0.18 89 1012.7
20260906032759 22 197 0.0 0.0 0.00 0.18 0.18 89 1012.7
20260906032659 22 197 0.0 0.0 0.00 0.18 0.18 89 1012.8
20260906032559 22 197 0.0 0.0 0.00 0.18 0.18 89 1012.8
20260906032459 22 197 0.0 0.0 0.00 0.18 0.18 89 1012.7
20260906032159 22 197 0.0 0.0 0.00 0.18 0.18 89 1012.8
20260906031959 22 197 0.0 0.0 0.00 0.18 0.18 89 1012.8
20260906031859 22 197 0.0 0.0 0.00 0.18 0.18 89 1012.7
20260906031759 22 197 0.0 0.0 0.00 0.18 0.18 89 1012.8
20260906031659 22 198 0.0 0.0 0.00 0.18 0.18 89 1012.8
20260906031600 22 197 0.0 0.0 0.00 0.18 0.18 89 1012.7
20260906031459 22 197 0.0 0.0 0.00 0.18 0.18 89 1012.8
20260906031358 22 197 0.0 0.0 0.00 0.18 0.18 89 1012.9
20260906031300 22 197 0.0 0.0 0.00 0.18 0.18 89 1012.7
20260906031201 22 197 0.0 0.0 0.00 0.18 0.18 89 1012.8
20260906031000 22 197 0.0 0.0 0.00 0.18 0.18 89 1012.7
20260906030859 22 197 0.0 0.0 0.00 0.18 0.18 89 1012.8
20260906030658 22 197 0.0 0.0 0.00 0.18 0.18 89 1012.7
20260906030559 22 197 0.0 0.0 0.00 0.18 0.18 89 1012.9
20260906030501 22 197 0.0 0.0 0.00 0.18 0.18 89 1012.7
20260906030359 22 197 0.0 0.0 0.00 0.18 0.18 89 1012.9
20260906030300 22 197 0.0 0.0 0.00 0.18 0.18 89 1013.0
20260906030159 22 197 0.0 0.0 0.00 0.18 0.18 89 1012.9
20260906030133 22 197 0.0 0.0 0.00 0.18 0.18 89 1012.1
20260906030100 22 197 0.0 0.0 0.00 0.18 0.18 89 1012.9
20260906030000 22 197 0.0 0.0 0.00 0.18 0.18 89 1012.8
20260906025859 22 197 0.0 0.0 0.00 0.18 0.18 89 1013.0
20260906025500 22 197 0.0 0.0 0.00 0.18 0.18 89 1012.9
20260906025359 22 197 0.0 0.0 0.00 0.18 0.18 89 1012.9
20260906025259 22 197 0.0 0.0 0.00 0.18 0.18 89 1012.9
20260906025159 22 197 0.0 0.0 0.00 0.18 0.18 89 1013.0
20260906025000 22 197 0.0 0.0 0.00 0.18 0.18 89 1013.0
20260906024900 22 197 0.0 0.0 0.00 0.18 0.18 89 1013.0
20260906024759 22 197 0.0 0.0 0.00 0.18 0.18 89 1013.0
20260906024659 22 197 0.0 0.0 0.00 0.18 0.18 89 1013.0
20260906024603 22 197 0.0 0.0 0.00 0.18 0.18 89 1012.1
20260906024559 22 197 0.0 0.0 0.00 0.18 0.18 89 1012.9
20260906024459 22 197 0.0 0.0 0.00 0.18 0.18 89 1013.1
20260906024359 22 197 0.0 0.0 0.00 0.18 0.18 89 1013.0
20260906024300 22 197 0.0 0.0 0.00 0.18 0.18 89 1012.9
20260906024159 22 197 0.0 0.0 0.00 0.18 0.18 89 1013.0
20260906024059 22 197 0.0 0.0 0.00 0.18 0.18 89 1012.9
20260906023959 22 197 0.0 0.0 0.00 0.18 0.18 89 1012.8
20260906023859 22 197 0.0 0.0 0.00 0.18 0.18 89 1012.9
20260906023800 22 197 0.0 0.0 0.00 0.18 0.18 89 1012.9
20260906023659 22 197 0.0 0.0 0.00 0.18 0.18 89 1013.0
20260906023559 22 197 0.0 0.0 0.00 0.18 0.18 89 1012.8
20260906023500 22 195 0.0 0.0 0.00 0.18 0.18 89 1012.8
20260906023359 22 197 0.0 0.0 0.00 0.18 0.18 89 1012.9
20260906023259 22 156 0.0 0.0 0.00 0.18 0.18 89 1012.7
20260906023159 22 157 0.0 0.0 0.00 0.18 0.18 89 1012.8
20260906023119 22 156 0.0 0.0 0.00 0.18 0.18 89 1012.0
20260906023059 22 156 0.0 0.0 0.00 0.18 0.18 89 1012.8
20260906023000 22 156 0.0 0.0 0.00 0.18 0.18 89 1012.7
20260906022859 22 156 0.0 0.0 0.00 0.18 0.18 89 1012.7
20260906022700 23 156 0.0 0.0 0.00 0.18 0.18 89 1012.7
20260906022558 23 158 0.0 0.0 0.00 0.18 0.18 89 1012.7
20260906022458 23 257 0.0 0.0 0.00 0.18 0.18 89 1012.6
20260906022358 23 257 0.0 0.0 0.00 0.18 0.18 89 1012.5
20260906022259 23 257 0.0 0.0 0.00 0.18 0.18 89 1012.5
20260906022159 23 257 0.0 0.0 0.00 0.18 0.18 89 1012.5
20260906022059 23 257 0.0 0.0 0.00 0.18 0.18 89 1012.5
20260906021859 23 257 0.0 0.0 0.00 0.18 0.18 89 1012.5
20260906021800 23 257 0.0 0.0 0.00 0.18 0.18 89 1012.5
20260906021659 23 257 0.0 0.0 0.00 0.18 0.18 89 1012.6
20260906021611 23 257 0.0 0.0 0.00 0.18 0.18 89 1011.7
20260906021600 23 257 0.0 0.0 0.00 0.18 0.18 89 1012.5
20260906021459 23 257 0.0 0.0 0.00 0.18 0.18 89 1012.5
20260906021259 23 257 0.0 0.0 0.00 0.18 0.18 89 1012.3
20260906021159 23 257 0.0 0.0 0.00 0.18 0.18 89 1012.3
20260906021059 23 257 0.0 0.0 0.00 0.18 0.18 89 1012.2
20260906020959 23 257 0.0 0.0 0.00 0.18 0.18 89 1012.2
20260906020759 23 257 0.0 0.0 0.00 0.18 0.18 89 1012.2
20260906020659 23 257 0.0 0.0 0.00 0.18 0.18 89 1012.2
20260906020559 23 257 0.0 0.0 0.00 0.18 0.18 89 1012.2
20260906020459 23 257 0.0 0.0 0.00 0.18 0.18 89 1012.2
20260906020359 23 257 0.0 0.0 0.00 0.18 0.18 89 1012.1
20260906020258 23 257 0.0 0.0 0.00 0.18 0.18 89 1012.2
20260906020159 23 257 0.0 0.0 0.00 0.18 0.18 89 1012.1
20260906020059 23 257 0.0 0.0 0.00 0.18 0.18 89 1012.2
20260906015958 23 257 0.0 0.0 0.00 0.18 0.18 89 1012.2
20260906015859 23 257 0.0 0.0 0.00 0.18 0.18 89 1012.3
20260906015759 23 257 0.0 0.0 0.00 0.18 0.18 89 1012.3
20260906015359 23 257 0.0 0.0 0.00 0.18 0.18 89 1012.5
20260906015300 23 257 0.0 0.0 0.00 0.18 0.18 89 1012.4
20260906015158 23 257 0.0 0.0 0.00 0.18 0.18 89 1012.5
20260906015059 23 257 0.0 0.0 0.00 0.18 0.18 89 1012.5
20260906014959 23 257 0.0 0.0 0.00 0.18 0.18 89 1012.6
20260906014859 23 257 0.0 0.0 0.00 0.18 0.18 89 1012.5
20260906014759 23 258 0.0 0.0 0.00 0.18 0.18 89 1012.6
20260906014659 23 257 0.0 0.0 0.00 0.18 0.18 89 1012.5
20260906014614 23 257 0.0 0.0 0.00 0.18 0.18 89 1011.7
20260906014559 23 257 0.0 0.0 0.00 0.18 0.18 89 1012.5
20260906014458 23 257 0.0 0.0 0.00 0.18 0.18 89 1012.4
20260906014359 23 257 0.0 0.0 0.00 0.18 0.18 89 1012.5
20260906014258 23 257 0.0 0.0 0.00 0.18 0.18 89 1012.5
20260906014100 23 257 0.0 0.0 0.00 0.18 0.18 89 1012.5
20260906013959 23 257 0.0 0.0 0.00 0.18 0.18 89 1012.4
20260906013900 23 257 0.0 0.0 0.00 0.18 0.18 89 1012.5
20260906013800 23 257 0.0 0.0 0.00 0.18 0.18 89 1012.5
20260906013659 23 257 0.0 0.0 0.00 0.18 0.18 89 1012.4
20260906013559 23 257 0.0 0.0 0.00 0.18 0.18 89 1012.4
20260906013459 23 257 0.0 0.0 0.00 0.18 0.18 89 1012.5
20260906013359 23 257 0.0 0.0 0.00 0.18 0.18 89 1012.3
20260906013259 23 257 0.0 0.0 0.00 0.18 0.18 89 1012.3
20260906013059 23 257 0.0 0.0 0.00 0.18 0.18 89 1011.7
20260906012959 23 257 0.0 0.0 0.00 0.18 0.18 89 1012.5
20260906012659 23 257 0.0 0.0 0.00 0.18 0.18 89 1012.5
20260906012559 23 257 0.0 0.0 0.00 0.18 0.18 89 1012.6
20260906012458 23 257 0.0 0.0 0.00 0.18 0.18 89 1012.6
20260906012400 23 257 0.0 0.0 0.00 0.18 0.18 89 1012.6
20260906012258 23 257 0.0 0.0 0.00 0.18 0.18 89 1012.6
20260906012159 23 257 0.0 0.0 0.00 0.18 0.18 89 1012.5
20260906012059 23 257 0.0 0.0 0.00 0.18 0.18 89 1012.6
20260906011959 23 257 0.0 0.0 0.00 0.18 0.18 89 1012.5
20260906011859 23 257 0.0 0.0 0.00 0.18 0.18 89 1012.4
20260906011759 23 257 0.0 0.0 0.00 0.18 0.18 89 1012.4
20260906011700 23 257 0.0 0.0 0.00 0.18 0.18 89 1012.3
20260906011605 23 257 0.0 0.0 0.00 0.18 0.18 89 1011.5
20260906011600 23 257 0.0 0.0 0.00 0.18 0.18 89 1012.3
20260906011359 23 257 0.0 0.0 0.00 0.18 0.18 89 1012.3
20260906011300 23 257 0.0 0.0 0.00 0.18 0.18 89 1012.2
20260906011159 23 257 0.0 0.0 0.00 0.18 0.18 89 1012.3
20260906011058 23 257 0.0 0.0 0.00 0.18 0.18 89 1012.3
20260906010859 23 257 0.0 0.0 0.00 0.18 0.18 89 1012.3
20260906010800 23 257 0.0 0.0 0.00 0.18 0.18 89 1012.3
20260906010659 23 257 0.0 0.0 0.00 0.18 0.18 89 1012.3
20260906010559 23 257 0.0 0.0 0.00 0.18 0.18 89 1012.3
20260906010459 23 257 0.0 0.0 0.00 0.18 0.18 89 1012.3
20260906010359 23 257 0.0 0.0 0.00 0.18 0.18 89 1012.2
20260906010300 23 257 0.0 0.0 0.00 0.18 0.18 89 1012.3
20260906010200 23 257 0.0 0.0 0.00 0.18 0.18 89 1012.2
20260906010100 23 257 0.0 0.0 0.00 0.18 0.18 89 1012.2
20260906010059 23 257 0.0 0.0 0.00 0.18 0.18 89 1011.4
20260906005959 23 257 0.0 0.0 0.00 0.18 0.18 89 1012.1
20260906005900 23 257 0.0 0.0 0.00 0.18 0.18 89 1012.1
20260906005759 23 257 0.0 0.0 0.00 0.18 0.18 89 1012.1
20260906005701 23 257 0.0 0.0 0.00 0.18 0.18 89 1012.1
20260906005600 23 257 0.0 0.0 0.00 0.18 0.18 89 1012.1
20260906005500 23 257 0.0 0.0 0.00 0.18 0.18 89 1012.1
20260906005300 23 257 0.0 0.0 0.00 0.18 0.18 89 1012.2
20260906005200 23 257 0.0 0.0 0.00 0.18 0.18 89 1012.1
20260906005100 23 257 0.0 0.0 0.00 0.18 0.18 89 1012.2
20260906005000 23 257 0.0 0.0 0.00 0.18 0.18 89 1012.1
20260906004900 23 257 0.0 0.0 0.00 0.18 0.18 89 1012.2
20260906004659 23 257 0.0 0.0 0.00 0.18 0.18 89 1012.2
20260906004601 23 257 0.0 0.0 0.00 0.18 0.18 89 1011.3
20260906004459 23 257 0.0 0.0 0.00 0.18 0.18 89 1012.1
20260906004400 23 257 0.0 0.0 0.00 0.18 0.18 89 1012.1
20260906004301 23 257 0.0 0.0 0.00 0.18 0.18 89 1012.1
20260906004201 23 257 0.0 0.0 0.00 0.18 0.18 89 1012.1
20260906004100 23 257 0.0 0.0 0.00 0.18 0.18 89 1011.9
20260906004000 23 257 0.0 0.0 0.00 0.18 0.18 89 1011.9
20260906003900 23 257 0.0 0.0 0.00 0.18 0.18 89 1011.9
20260906003800 23 257 0.0 0.0 0.00 0.18 0.18 89 1012.0
20260906003600 23 257 0.0 0.0 0.00 0.18 0.18 89 1012.0
20260906003500 23 257 0.0 0.0 0.00 0.18 0.18 89 1012.1
20260906003401 23 257 0.0 0.0 0.00 0.18 0.18 89 1012.1
20260906003300 23 257 0.0 0.0 0.00 0.18 0.18 89 1011.9
20260906003108 23 257 0.0 0.0 0.00 0.18 0.18 89 1011.1
20260906003101 23 257 0.0 0.0 0.00 0.18 0.18 89 1011.9
20260906003001 23 257 0.0 0.0 0.00 0.18 0.18 89 1011.9
20260906002901 23 257 0.0 0.0 0.00 0.18 0.18 89 1011.9
20260906002800 23 257 0.0 0.0 0.00 0.18 0.18 89 1011.9
20260906002700 23 257 0.0 0.0 0.00 0.18 0.18 89 1011.8
20260906002601 23 257 0.0 0.0 0.00 0.18 0.18 89 1011.8
20260906002501 23 257 0.0 0.0 0.00 0.18 0.18 89 1011.8
20260906002400 23 257 0.0 0.0 0.00 0.18 0.18 89 1011.9
20260906002300 23 257 0.0 0.0 0.00 0.18 0.18 89 1011.7
20260906002200 23 257 0.0 0.0 0.00 0.18 0.18 89 1011.7
20260906002100 23 257 0.0 0.0 0.00 0.18 0.18 89 1011.7
20260906001859 23 257 0.0 0.0 0.00 0.18 0.18 89 1011.8
20260906001800 23 257 0.0 0.0 0.00 0.18 0.18 89 1011.7
20260906001700 23 257 0.0 0.0 0.00 0.18 0.18 89 1011.7
20260906001601 23 257 0.0 0.0 0.00 0.18 0.18 89 1011.0
20260906001500 23 257 0.0 0.0 0.00 0.18 0.18 89 1011.7
20260906001300 23 257 0.0 0.0 0.00 0.18 0.18 89 1011.6
20260906001201 23 257 0.0 0.0 0.00 0.18 0.18 89 1011.6
20260906001100 23 257 0.0 0.0 0.00 0.18 0.18 89 1011.6
20260906000901 23 257 0.0 0.0 0.00 0.18 0.18 89 1011.5
20260906000759 23 257 0.0 0.0 0.00 0.18 0.18 89 1011.6
20260906000659 23 257 0.0 0.0 0.00 0.18 0.18 89 1011.6
20260906000601 23 257 0.0 0.0 0.00 0.18 0.18 89 1011.6
20260906000501 23 257 0.0 0.0 0.00 0.18 0.18 89 1011.6
20260906000400 23 257 0.0 0.0 0.00 0.18 0.18 89 1011.5
20260906000300 23 257 0.0 0.0 0.00 0.18 0.18 89 1011.5
20260906000100 23 257 0.0 0.0 0.00 0.18 0.18 89 1010.7
20260906000001 23 257 0.0 0.0 0.00 0.18 0.18 89 1010.7
20260905235859 23 257 0.0 0.0 0.00 0.18 0.18 89 1011.5
20260905235800 23 257 0.0 0.0 0.00 0.18 0.18 89 1011.6
20260905235559 23 257 0.0 0.0 0.00 0.18 0.18 89 1011.5
20260905235459 23 257 0.0 0.0 0.00 0.18 0.18 89 1011.4
20260905235359 23 257 0.0 0.0 0.00 0.18 0.18 89 1011.3
20260905235301 23 257 0.0 0.0 0.00 0.18 0.18 89 1011.3
20260905235159 23 257 0.0 0.0 0.00 0.18 0.18 89 1011.4
20260905234959 23 257 0.0 0.0 0.00 0.18 0.18 89 1011.3
20260905234858 23 257 0.0 0.0 0.00 0.18 0.18 89 1011.4
20260905234759 23 257 0.0 0.0 0.00 0.18 0.18 89 1011.5
20260905234659 23 257 0.0 0.0 0.00 0.18 0.18 89 1011.4
20260905234613 23 257 0.0 0.0 0.00 0.18 0.18 89 1010.6
20260905234159 24 257 0.0 0.0 0.00 0.18 0.18 89 1011.3
20260905233859 24 257 0.0 0.0 0.00 0.18 0.18 89 1011.3
20260905233759 24 257 0.0 0.0 0.00 0.18 0.18 89 1011.2
20260905233559 24 257 0.0 0.0 0.00 0.18 0.18 89 1011.4
20260905233459 24 257 0.0 0.0 0.00 0.18 0.18 89 1011.3
20260905233259 24 257 0.0 0.0 0.00 0.18 0.18 89 1011.2
20260905233159 24 257 0.0 0.0 0.00 0.18 0.18 89 1011.2
20260905233059 24 257 0.0 0.0 0.00 0.18 0.18 89 1011.1
20260905232959 24 257 0.0 0.0 0.00 0.18 0.18 89 1011.1
20260905232859 24 257 0.0 0.0 0.00 0.18 0.18 89 1010.9
20260905232759 24 257 0.0 0.0 0.00 0.18 0.18 89 1011.0
20260905232659 24 257 0.0 0.0 0.00 0.18 0.18 89 1011.0
20260905232559 24 257 0.0 0.0 0.00 0.18 0.18 89 1011.0
20260905232459 24 257 0.0 0.0 0.00 0.18 0.18 89 1011.1
20260905232359 24 257 0.0 0.0 0.00 0.18 0.18 89 1011.1
20260905232259 24 257 0.0 0.0 0.00 0.18 0.18 89 1011.0
20260905232158 24 257 0.0 0.0 0.00 0.18 0.18 89 1010.9
20260905232059 24 257 0.0 0.0 0.00 0.18 0.18 89 1011.0
20260905231959 24 257 0.0 0.0 0.00 0.18 0.18 89 1011.0
20260905231859 24 257 0.0 0.0 0.00 0.18 0.18 89 1010.9
20260905231759 24 257 0.0 0.0 0.00 0.18 0.18 89 1010.9
20260905231700 24 257 0.0 0.0 0.00 0.18 0.18 88 1010.9
20260905231600 24 257 0.0 0.0 0.00 0.18 0.18 88 1010.9
20260905231500 24 257 0.0 0.0 0.00 0.18 0.18 88 1010.9
20260905231359 24 257 0.0 0.0 0.00 0.18 0.18 88 1010.9
20260905231259 24 257 0.0 0.0 0.00 0.18 0.18 88 1010.8
20260905231159 24 257 0.0 0.0 0.00 0.18 0.18 88 1010.8
20260905231059 24 257 0.0 0.0 0.00 0.18 0.18 88 1010.8
20260905230958 24 257 0.0 0.0 0.00 0.18 0.18 88 1010.9
20260905230859 24 257 0.0 0.0 0.00 0.18 0.18 88 1010.8
20260905230759 24 257 0.0 0.0 0.00 0.18 0.18 88 1010.7
20260905230659 24 257 0.0 0.0 0.00 0.18 0.18 88 1010.7
20260905230558 24 257 0.0 0.0 0.00 0.18 0.18 88 1010.7
20260905230459 24 257 0.0 0.0 0.00 0.18 0.18 88 1010.6
20260905230400 24 257 0.0 0.0 0.00 0.18 0.18 89 1010.7
20260905230259 24 257 0.0 0.0 0.00 0.18 0.18 89 1010.6
20260905230159 24 257 0.0 0.0 0.00 0.18 0.18 89 1010.6
20260905230059 25 257 0.0 0.0 0.00 0.18 0.18 89 1009.6
20260905230001 25 257 0.0 0.0 0.00 0.18 0.18 89 1009.6
20260905225859 25 257 0.0 0.0 0.00 0.18 0.18 89 1010.5
20260905225800 25 257 0.0 0.0 0.00 0.18 0.18 89 1010.5
20260905225700 25 257 0.0 0.0 0.00 0.18 0.18 89 1010.5
20260905225600 25 257 0.0 0.0 0.00 0.18 0.18 89 1010.5
20260905225400 25 257 0.0 0.0 0.00 0.18 0.18 89 1010.6
20260905225301 25 257 0.0 0.0 0.00 0.18 0.18 89 1010.5
20260905225200 25 257 0.0 0.0 0.00 0.18 0.18 89 1010.4
20260905225059 25 257 0.0 0.0 0.00 0.18 0.18 89 1010.4
20260905225000 25 257 0.0 0.0 0.00 0.18 0.18 89 1010.4
20260905224900 25 257 0.0 0.0 0.00 0.18 0.18 89 1010.5
20260905224759 25 257 0.0 0.0 0.00 0.18 0.18 89 1010.5
20260905224700 25 257 0.0 0.0 0.00 0.18 0.18 89 1010.5
20260905224609 25 257 0.0 0.0 0.00 0.18 0.18 89 1009.6
20260905224459 25 257 0.0 0.0 0.00 0.18 0.18 89 1010.5
20260905224400 25 257 0.0 0.0 0.00 0.18 0.18 89 1010.5
20260905224300 25 257 0.0 0.0 0.00 0.18 0.18 89 1010.6
20260905224200 25 257 0.0 0.0 0.00 0.18 0.18 89 1010.7
20260905224100 25 257 0.0 0.0 0.00 0.18 0.18 89 1010.7
20260905224000 25 257 0.0 0.0 0.00 0.18 0.18 89 1010.6
20260905223901 25 257 0.0 0.0 0.00 0.18 0.18 89 1010.7
20260905223800 25 257 0.0 0.0 0.00 0.18 0.18 89 1010.6
20260905223600 25 257 0.0 0.0 0.00 0.18 0.18 90 1010.6
20260905223359 25 257 0.0 0.0 0.00 0.18 0.18 90 1010.6
20260905223300 25 257 0.0 0.0 0.00 0.18 0.18 90 1010.6
20260905223201 25 257 0.0 0.0 0.00 0.18 0.18 90 1010.7
20260905223100 25 257 0.0 0.0 0.00 0.18 0.18 90 1009.8
20260905222959 25 257 0.0 0.0 0.00 0.18 0.18 90 1010.7
20260905222900 25 257 0.0 0.0 0.00 0.18 0.18 90 1010.8
20260905222800 25 257 0.0 0.0 0.00 0.18 0.18 90 1010.8
20260905222701 24 257 0.0 0.0 0.00 0.18 0.18 90 1010.8
20260905222600 24 256 0.0 0.0 0.00 0.18 0.18 90 1010.9
20260905222500 24 256 0.0 0.0 0.00 0.18 0.18 90 1010.9
20260905222300 24 260 0.0 0.0 0.00 0.18 0.18 90 1010.9
20260905222000 24 260 0.0 0.0 0.00 0.18 0.18 90 1011.0
20260905221900 24 259 0.0 0.0 0.00 0.18 0.18 90 1011.1
20260905221759 24 260 0.0 0.0 0.00 0.18 0.18 90 1011.3
20260905221700 24 259 0.0 0.0 0.00 0.18 0.18 90 1011.1
20260905221601 24 260 0.0 0.0 0.00 0.18 0.18 90 1010.2
20260905221500 24 260 0.0 0.0 0.00 0.18 0.18 90 1010.9
20260905221359 24 260 0.0 0.0 0.00 0.18 0.18 90 1010.9
20260905221300 24 260 0.0 0.0 0.00 0.18 0.18 90 1010.9
20260905221200 24 260 0.0 0.0 0.00 0.18 0.18 90 1010.9
20260905221101 24 260 0.0 0.0 0.00 0.18 0.18 90 1010.9
20260905221000 24 260 0.0 0.0 0.00 0.18 0.18 90 1010.9
20260905220900 24 259 0.0 0.0 0.00 0.18 0.18 90 1011.0
20260905220759 23 260 0.0 0.0 0.00 0.18 0.18 90 1010.8
20260905220701 23 260 0.0 0.0 0.00 0.18 0.18 90 1010.8
20260905220600 23 260 0.0 0.0 0.00 0.18 0.18 90 1010.8
20260905220500 23 260 0.0 0.0 0.00 0.18 0.18 90 1010.9
20260905220400 23 260 0.0 0.0 0.00 0.18 0.18 90 1010.8
20260905220200 23 260 0.0 0.0 0.00 0.18 0.18 90 1010.6
20260905220100 23 260 0.0 0.0 0.00 0.18 0.18 90 1010.6
20260905220002 23 260 0.0 0.0 0.00 0.18 0.18 90 1010.6
20260905215801 23 260 0.0 0.0 0.00 0.18 0.18 90 1010.6
20260905215659 23 260 0.0 0.0 0.00 0.18 0.18 90 1010.6
20260905215558 23 260 0.0 0.0 0.00 0.18 0.18 90 1010.6
20260905215459 23 260 0.0 0.0 0.00 0.18 0.18 90 1010.6
20260905215258 23 260 0.0 0.0 0.00 0.18 0.18 90 1010.7
20260905215158 23 260 0.0 0.0 0.00 0.18 0.18 90 1010.6
20260905215059 23 260 0.0 0.0 0.00 0.18 0.18 90 1010.6
20260905214959 23 260 0.0 0.0 0.00 0.18 0.18 90 1010.6
20260905214858 23 260 0.0 0.0 0.00 0.18 0.18 90 1010.5
20260905214800 23 260 0.0 0.0 0.00 0.18 0.18 90 1010.6
20260905214659 23 260 0.0 0.0 0.00 0.18 0.18 90 1010.5
20260905214608 23 260 0.0 0.0 0.00 0.18 0.18 90 1009.6
20260905214558 23 260 0.0 0.0 0.00 0.18 0.18 90 1010.4
20260905214458 23 260 0.0 0.0 0.00 0.18 0.18 90 1010.4
20260905214259 23 260 0.0 0.0 0.00 0.18 0.18 90 1010.3
20260905214159 23 260 0.0 0.0 0.00 0.18 0.18 90 1010.4
20260905213959 23 260 0.0 0.0 0.00 0.18 0.18 90 1010.4
20260905213859 23 260 0.0 0.0 0.00 0.18 0.18 90 1010.4
20260905213758 23 260 0.0 0.0 0.00 0.18 0.18 90 1010.4
20260905213658 23 260 0.0 0.0 0.00 0.18 0.18 90 1010.4
20260905213558 23 260 0.0 0.0 0.00 0.18 0.18 90 1010.4
20260905213459 23 260 0.0 0.0 0.00 0.18 0.18 90 1010.4
20260905213358 23 260 0.0 0.0 0.00 0.18 0.18 90 1010.3
20260905213259 23 260 0.0 0.0 0.00 0.18 0.18 90 1010.3
20260905213159 23 260 0.0 0.0 0.00 0.18 0.18 89 1010.3
20260905213106 23 260 0.0 0.0 0.00 0.18 0.18 89 1009.3
20260905213059 23 260 0.0 0.0 0.00 0.18 0.18 89 1010.2
20260905212858 23 260 0.0 0.0 0.00 0.18 0.18 89 1010.4
20260905212759 23 259 0.0 0.0 0.00 0.18 0.18 89 1010.2
20260905212558 23 259 0.0 0.0 0.00 0.18 0.18 89 1010.3
20260905212459 23 259 0.0 0.0 0.00 0.18 0.18 89 1010.2
20260905212359 23 259 0.0 0.0 0.00 0.18 0.18 89 1010.2
20260905212200 22 260 0.0 0.0 0.00 0.18 0.18 89 1010.2
20260905212059 22 260 0.0 0.0 0.00 0.18 0.18 89 1010.3
20260905212000 22 260 0.0 0.0 0.00 0.18 0.18 89 1010.1
20260905211859 22 260 0.0 0.0 0.00 0.18 0.18 89 1010.2
20260905211759 22 260 0.0 0.0 0.00 0.18 0.18 89 1010.2
20260905211658 22 260 0.0 0.0 0.00 0.18 0.18 89 1010.0
20260905211601 22 260 0.0 0.0 0.00 0.18 0.18 89 1009.2
20260905211558 22 260 0.0 0.0 0.00 0.18 0.18 89 1010.1
20260905211459 22 260 0.0 0.0 0.00 0.18 0.18 89 1010.2
20260905211359 22 260 0.0 0.0 0.00 0.18 0.18 89 1010.3
20260905211200 22 260 0.0 0.0 0.00 0.18 0.18 89 1010.2
20260905211059 22 259 0.0 0.0 0.00 0.18 0.18 89 1010.3
20260905210959 22 260 0.0 0.0 0.00 0.18 0.18 89 1010.2
20260905210859 22 260 0.0 0.0 0.00 0.18 0.18 89 1010.3
20260905210758 22 260 0.0 0.0 0.00 0.18 0.18 89 1010.3
20260905210659 22 259 0.0 0.0 0.00 0.18 0.18 89 1010.2
20260905210559 22 259 0.0 0.0 0.00 0.18 0.18 89 1010.3
20260905210458 22 259 0.0 0.0 0.00 0.18 0.18 89 1010.4
20260905210359 22 259 0.0 0.0 0.00 0.18 0.18 89 1010.3
20260905210259 22 259 0.0 0.0 0.00 0.18 0.18 89 1010.4
20260905210159 22 259 0.0 0.0 0.00 0.18 0.18 89 1010.4
20260905210059 22 262 0.0 0.0 0.00 0.18 0.18 89 1009.4
20260905210000 22 262 0.0 0.0 0.00 0.18 0.18 89 1010.5
20260905205859 22 261 0.0 0.0 0.00 0.18 0.18 89 1010.4
20260905205759 22 281 0.0 0.0 0.00 0.18 0.18 89 1010.4
20260905205659 22 281 0.0 0.0 0.00 0.18 0.18 89 1010.4
20260905205559 22 283 0.0 0.0 0.00 0.18 0.18 89 1010.5
20260905205458 22 282 0.0 0.0 0.00 0.18 0.18 89 1010.4
20260905205359 22 283 0.0 0.0 0.00 0.18 0.18 89 1010.5
20260905205300 22 283 0.0 0.0 0.00 0.18 0.18 89 1010.4
20260905205159 22 282 0.0 0.0 0.00 0.18 0.18 89 1010.3
20260905204958 22 282 0.0 0.0 0.00 0.18 0.18 89 1010.4
20260905204859 22 282 0.0 0.0 0.00 0.18 0.18 89 1010.4
20260905204758 22 283 0.0 0.0 0.00 0.18 0.18 89 1010.3
20260905204658 22 282 0.0 0.0 0.00 0.18 0.18 89 1010.4
20260905204559 22 283 0.0 0.0 0.00 0.18 0.18 89 1009.4
20260905204459 22 282 0.0 0.0 0.00 0.18 0.18 89 1010.3
20260905204259 22 281 0.0 0.0 0.00 0.18 0.18 89 1010.4
20260905204059 22 281 0.0 0.0 0.00 0.18 0.18 89 1010.4
20260905203858 22 281 0.0 0.0 0.00 0.18 0.18 89 1010.5
20260905203759 22 281 0.0 0.0 0.00 0.18 0.18 89 1010.6
20260905203658 22 281 0.0 0.0 0.00 0.18 0.18 89 1010.5
20260905203559 22 281 0.0 0.0 0.00 0.18 0.18 89 1010.5
20260905203500 22 282 0.0 0.0 0.00 0.18 0.18 89 1010.5
20260905203358 22 281 0.0 0.0 0.00 0.18 0.18 89 1010.4
20260905203259 22 282 0.0 0.0 0.00 0.18 0.18 89 1010.4
20260905203200 22 282 0.0 0.0 0.00 0.18 0.18 89 1010.3
20260905203102 22 282 0.0 0.0 0.00 0.18 0.18 89 1009.3
20260905203059 22 282 0.0 0.0 0.00 0.18 0.18 89 1010.2
20260905202959 22 281 0.0 0.0 0.00 0.18 0.18 89 1010.2
20260905202900 22 281 0.0 0.0 0.00 0.18 0.18 89 1010.4
20260905202559 22 282 0.0 0.0 0.00 0.18 0.18 89 1010.2
20260905202459 22 277 0.0 0.0 0.03 0.18 0.18 89 1010.2
20260905202258 22 276 0.0 0.0 0.10 0.18 0.18 89 1010.2
20260905202159 22 276 0.0 0.0 0.13 0.18 0.18 89 1010.2
20260905202058 23 275 0.0 0.0 0.15 0.18 0.18 89 1010.2
20260905201959 23 276 0.0 0.0 0.18 0.18 0.18 89 1010.2
20260905201859 23 276 0.0 0.0 0.18 0.18 0.18 89 1010.2
20260905201758 23 277 0.0 0.0 0.18 0.18 0.18 89 1010.3
20260905201606 23 276 0.0 0.0 0.18 0.18 0.18 89 1009.3
20260905201558 23 276 0.0 0.0 0.18 0.18 0.18 89 1010.2
20260905201500 23 276 0.0 0.0 0.18 0.18 0.18 89 1010.2
20260905201359 23 276 0.0 0.0 0.18 0.18 0.18 89 1010.2
20260905201259 23 276 0.0 0.0 0.18 0.18 0.18 89 1010.3
20260905201159 23 276 0.0 0.0 0.18 0.18 0.18 89 1010.3
20260905201100 23 276 0.0 0.0 0.18 0.18 0.18 89 1010.3
20260905200859 23 276 0.0 0.0 0.18 0.18 0.18 89 1010.5
20260905200759 23 276 0.0 0.0 0.18 0.18 0.18 89 1010.5
20260905200659 23 276 0.0 0.0 0.18 0.18 0.18 89 1010.6
20260905200558 23 274 0.0 0.0 0.18 0.18 0.18 89 1010.5
20260905200459 23 276 0.0 0.0 0.18 0.18 0.18 89 1010.6
20260905200259 23 271 0.0 0.0 0.18 0.18 0.18 89 1010.8
20260905200159 23 271 0.0 0.0 0.18 0.18 0.18 89 1011.0
20260905200059 23 271 0.0 0.0 0.18 0.18 0.18 89 1011.1
20260905200000 23 271 0.0 0.0 0.18 0.18 0.18 89 1011.2
20260905195859 23 271 0.0 0.0 0.18 0.18 0.18 89 1011.4
20260905195800 23 271 0.0 0.0 0.18 0.18 0.18 89 1011.4
20260905195658 23 271 0.0 0.0 0.18 0.18 0.18 89 1011.4
20260905195558 23 271 0.0 0.0 0.18 0.18 0.18 89 1011.5
20260905195258 23 271 0.0 0.0 0.18 0.18 0.18 89 1011.6
20260905195158 23 271 0.0 0.0 0.18 0.18 0.18 89 1011.7
20260905195058 23 271 0.0 0.0 0.18 0.18 0.18 89 1011.7
20260905194959 23 271 0.0 0.0 0.18 0.18 0.18 89 1011.8
20260905194859 23 271 0.0 0.0 0.18 0.18 0.18 88 1011.7
20260905194659 23 271 0.0 0.0 0.18 0.18 0.18 88 1011.3
20260905194600 23 257 0.0 0.0 0.18 0.18 0.18 88 1010.3
20260905194459 23 244 0.0 0.0 0.18 0.18 0.18 88 1011.2
20260905194358 23 243 0.0 0.0 0.18 0.18 0.18 88 1011.3
20260905194259 23 255 0.0 0.0 0.18 0.18 0.18 88 1011.2
20260905194200 23 255 0.0 0.0 0.18 0.18 0.18 88 1011.2
20260905193959 23 251 0.0 0.0 0.18 0.18 0.18 88 1011.2
20260905193859 23 208 0.0 0.0 0.18 0.18 0.18 87 1011.2
20260905193758 24 201 0.0 0.0 0.18 0.18 0.18 87 1011.3
20260905193659 24 201 0.0 0.0 0.18 0.18 0.18 86 1011.4
20260905193559 24 201 0.0 0.0 0.18 0.18 0.18 86 1011.4
20260905193458 24 201 0.0 0.0 0.18 0.18 0.18 86 1011.3
20260905193359 24 201 0.0 0.0 0.18 0.18 0.18 86 1011.4
20260905193159 24 201 0.0 0.0 0.18 0.18 0.18 85 1011.5
20260905193059 25 201 0.0 0.0 0.18 0.18 0.18 84 1010.5
20260905192859 25 167 0.0 0.0 0.18 0.18 0.18 83 1011.5
20260905192759 25 168 0.0 0.0 0.18 0.18 0.18 83 1011.7
20260905192559 25 167 0.0 1.6 0.18 0.18 0.18 81 1011.7
20260905192400 25 168 0.0 1.6 0.13 0.13 0.13 80 1011.8
20260905192258 25 167 0.0 1.6 0.08 0.08 0.08 80 1011.8
20260905192159 25 167 0.0 1.6 0.05 0.05 0.05 80 1011.6
20260905192059 26 166 0.0 1.6 0.03 0.03 0.03 79 1011.5
20260905192000 26 168 0.0 1.6 0.00 0.00 0.00 78 1011.6
20260905191759 26 200 0.0 1.6 0.00 0.00 0.00 77 1011.3
20260905191700 26 161 0.0 1.6 0.00 0.00 0.00 77 1011.1
20260905191613 26 41 0.0 1.6 0.00 0.00 0.00 76 1010.2
20260905191600 26 41 0.0 1.6 0.00 0.00 0.00 76 1011.2
20260905191459 26 15 0.0 1.6 0.00 0.00 0.00 76 1011.2
20260905191401 27 15 0.0 1.6 0.00 0.00 0.00 75 1011.2
20260905191258 27 14 0.0 1.6 0.00 0.00 0.00 74 1011.1
20260905191158 27 95 0.0 1.6 0.00 0.00 0.00 74 1011.2
20260905191058 27 99 0.0 1.6 0.00 0.00 0.00 73 1011.3
20260905190959 27 94 0.0 1.6 0.00 0.00 0.00 73 1011.3
20260905190858 27 78 0.0 1.6 0.00 0.00 0.00 72 1011.4
20260905190759 27 115 0.0 1.6 0.00 0.00 0.00 72 1011.3
20260905190658 27 12 0.0 0.0 0.00 0.00 0.00 71 1011.4
20260905190558 27 124 0.0 0.0 0.00 0.00 0.00 71 1011.5
20260905190459 27 101 0.0 0.0 0.00 0.00 0.00 71 1011.5
20260905190258 27 347 0.0 0.0 0.00 0.00 0.00 71 1011.4
20260905190159 28 84 0.0 1.6 0.00 0.00 0.00 70 1011.4
20260905190059 28 129 0.0 1.6 0.00 0.00 0.00 70 1011.5
20260905190003 28 108 0.0 1.6 0.00 0.00 0.00 70 1010.5
20260905190000 28 108 0.0 1.6 0.00 0.00 0.00 70 1011.5
20260905185758 28 339 0.0 1.6 0.00 0.00 0.00 69 1011.5
20260905185659 28 326 0.0 1.6 0.00 0.00 0.00 69 1011.6
20260905185558 29 339 0.0 1.6 0.00 0.00 0.00 68 1011.8
20260905185459 29 335 0.0 1.6 0.00 0.00 0.00 67 1011.7
20260905185400 30 318 0.0 1.6 0.00 0.00 0.00 66 1011.9
20260905185259 30 8 0.0 1.6 0.00 0.00 0.00 66 1011.9
20260905185200 30 80 0.0 1.6 0.00 0.00 0.00 65 1011.6
20260905185059 30 333 0.0 1.6 0.00 0.00 0.00 64 1011.4
20260905184959 31 331 0.0 1.6 0.00 0.00 0.00 63 1011.4
20260905184800 31 352 0.0 1.6 0.00 0.00 0.00 62 1011.2
20260905184658 32 344 0.0 1.6 0.00 0.00 0.00 62 1011.2
20260905184609 32 155 0.0 1.6 0.00 0.00 0.00 61 1010.3
20260905184559 32 155 0.0 1.6 0.00 0.00 0.00 61 1011.3
20260905184459 32 350 0.0 1.6 0.00 0.00 0.00 60 1011.1
20260905184359 33 356 0.0 1.6 0.00 0.00 0.00 59 1011.1
20260905184159 33 340 0.0 1.6 0.00 0.00 0.00 59 1011.0
20260905184058 33 337 0.0 1.6 0.00 0.00 0.00 59 1010.7
20260905183959 33 345 0.0 1.6 0.00 0.00 0.00 60 1010.4
20260905183859 33 308 0.0 1.6 0.00 0.00 0.00 58 1010.3
20260905183759 33 300 0.0 1.6 0.00 0.00 0.00 58 1010.3
20260905183659 33 318 0.0 1.6 0.00 0.00 0.00 58 1010.3
20260905183558 33 231 0.0 1.6 0.00 0.00 0.00 58 1010.3
20260905183500 33 333 0.0 1.6 0.00 0.00 0.00 58 1010.3
20260905183358 33 242 0.0 1.6 0.00 0.00 0.00 58 1010.2
20260905183258 33 249 0.0 1.6 0.00 0.00 0.00 58 1010.2
20260905183158 33 239 0.0 1.6 0.00 0.00 0.00 57 1010.2
20260905183101 34 278 0.0 1.6 0.00 0.00 0.00 57 1009.2
20260905183059 34 278 0.0 1.6 0.00 0.00 0.00 57 1010.2
20260905182958 34 281 0.0 0.0 0.00 0.00 0.00 57 1010.2
20260905182859 34 290 0.0 0.0 0.00 0.00 0.00 57 1010.2
20260905182659 34 280 0.0 0.0 0.00 0.00 0.00 58 1010.2
20260905182459 34 242 0.0 0.0 0.00 0.00 0.00 57 1010.1
20260905182358 34 243 0.0 0.0 0.00 0.00 0.00 57 1010.2
20260905182059 34 253 0.0 0.0 0.00 0.00 0.00 58 1010.3
20260905181959 34 256 0.0 0.0 0.00 0.00 0.00 58 1010.3
20260905181858 34 356 0.0 0.0 0.00 0.00 0.00 57 1010.3
20260905181759 34 270 0.0 0.0 0.00 0.00 0.00 57 1010.1
20260905181659 34 271 0.0 0.0 0.00 0.00 0.00 57 1010.3
20260905181559 34 258 0.0 0.0 0.00 0.00 0.00 58 1009.1
20260905181359 34 143 0.0 0.0 0.00 0.00 0.00 58 1010.2
20260905181259 34 245 0.0 0.0 0.00 0.00 0.00 58 1010.1
20260905181158 34 242 0.0 0.0 0.00 0.00 0.00 57 1010.3
20260905181059 34 224 0.0 0.0 0.00 0.00 0.00 58 1010.2
20260905180959 34 331 0.0 0.0 0.00 0.00 0.00 58 1010.3
20260905180858 34 330 0.0 0.0 0.00 0.00 0.00 59 1010.4
20260905180759 34 262 0.0 0.0 0.00 0.00 0.00 57 1010.4
20260905180659 34 272 0.0 0.0 0.00 0.00 0.00 59 1010.4
20260905180558 34 254 0.0 0.0 0.00 0.00 0.00 58 1010.4
20260905180459 34 260 0.0 0.0 0.00 0.00 0.00 58 1010.4
20260905180359 34 293 0.0 0.0 0.00 0.00 0.00 56 1010.5
20260905180259 34 264 0.0 0.0 0.00 0.00 0.00 56 1010.6
20260905180158 34 255 0.0 0.0 0.00 0.00 0.00 56 1010.7
20260905180059 34 271 0.0 0.0 0.00 0.00 0.00 56 1010.6
20260905175858 34 240 0.0 0.0 0.00 0.00 0.00 55 1010.7
20260905175759 34 240 0.0 0.0 0.00 0.00 0.00 56 1010.8
20260905175659 34 330 0.0 0.0 0.00 0.00 0.00 57 1010.7
20260905175359 34 269 0.0 0.0 0.00 0.00 0.00 56 1010.8
20260905175259 34 257 0.0 0.0 0.00 0.00 0.00 57 1010.9
20260905175159 34 252 0.0 0.0 0.00 0.00 0.00 57 1010.9
20260905175100 34 256 0.0 0.0 0.00 0.00 0.00 56 1011.0
20260905174958 34 245 0.0 0.0 0.00 0.00 0.00 57 1011.0
20260905174900 34 326 0.0 0.0 0.00 0.00 0.00 58 1011.0
20260905174758 34 260 0.0 0.0 0.00 0.00 0.00 57 1011.0
20260905174606 34 332 0.0 0.0 0.00 0.00 0.00 58 1010.0
20260905174559 34 332 0.0 0.0 0.00 0.00 0.00 58 1011.0
20260905174459 34 259 0.0 0.0 0.00 0.00 0.00 57 1011.1
20260905174359 34 326 0.0 0.0 0.00 0.00 0.00 57 1011.1
20260905174300 34 258 0.0 0.0 0.00 0.00 0.00 59 1011.1
20260905174158 34 262 0.0 0.0 0.00 0.00 0.00 59 1011.2
20260905173959 33 262 0.0 0.0 0.00 0.00 0.00 58 1011.3
20260905173758 33 240 0.0 0.0 0.00 0.00 0.00 57 1011.5
20260905173659 33 245 0.0 0.0 0.00 0.00 0.00 57 1011.5
20260905173459 33 250 0.0 0.0 0.00 0.00 0.00 57 1011.6
20260905173259 33 245 0.0 0.0 0.00 0.00 0.00 57 1011.7
20260905173109 33 150 0.0 0.0 0.00 0.00 0.00 57 1010.8
20260905173059 33 150 0.0 0.0 0.00 0.00 0.00 57 1011.8
20260905172958 33 259 0.0 0.0 0.00 0.00 0.00 58 1011.8
20260905172858 33 264 0.0 0.0 0.00 0.00 0.00 58 1011.8
20260905172758 33 255 0.0 0.0 0.00 0.00 0.00 57 1011.8
20260905172600 33 253 0.0 0.0 0.00 0.00 0.00 58 1011.8
20260905172459 33 241 0.0 0.0 0.00 0.00 0.00 57 1011.8
20260905172401 33 253 0.0 0.0 0.00 0.00 0.00 58 1011.8
20260905172259 33 273 0.0 0.0 0.00 0.00 0.00 59 1011.8
20260905172059 33 258 0.0 0.0 0.00 0.00 0.00 58 1011.8
20260905171959 33 250 0.0 0.0 0.00 0.00 0.00 57 1011.9
20260905171758 33 252 0.0 0.0 0.00 0.00 0.00 57 1011.8
20260905171600 33 278 0.0 0.0 0.00 0.00 0.00 57 1010.8
20260905171458 33 273 0.0 0.0 0.00 0.00 0.00 56 1011.8
20260905171359 33 274 0.0 0.0 0.00 0.00 0.00 57 1011.8
20260905171259 33 245 0.0 0.0 0.00 0.00 0.00 57 1011.8
20260905171158 33 246 0.0 0.0 0.00 0.00 0.00 56 1011.9
20260905171059 34 246 0.0 0.0 0.00 0.00 0.00 56 1012.0
20260905170958 34 229 0.0 0.0 0.00 0.00 0.00 57 1011.8
20260905170659 34 343 0.0 0.0 0.00 0.00 0.00 57 1012.0
20260905170559 34 343 0.0 0.0 0.00 0.00 0.00 57 1012.1
20260905170459 34 340 0.0 0.0 0.00 0.00 0.00 57 1012.1
20260905170359 34 341 0.0 0.0 0.00 0.00 0.00 58 1011.9
20260905170259 34 352 0.0 0.0 0.00 0.00 0.00 57 1011.9
20260905170159 33 327 0.0 0.0 0.00 0.00 0.00 56 1012.0
20260905170100 33 95 0.0 0.0 0.00 0.00 0.00 58 1011.0
20260905170059 33 95 0.0 0.0 0.00 0.00 0.00 58 1012.0
20260905165959 33 344 0.0 0.0 0.00 0.00 0.00 60 1012.1
20260905165759 33 254 0.0 0.0 0.00 0.00 0.00 57 1012.1
20260905165659 33 253 0.0 0.0 0.00 0.00 0.00 58 1012.1
20260905165558 33 252 0.0 0.0 0.00 0.00 0.00 58 1012.2
20260905165458 33 253 0.0 0.0 0.00 0.00 0.00 59 1012.2
20260905165358 33 266 0.0 0.0 0.00 0.00 0.00 58 1012.2
20260905165259 33 259 0.0 0.0 0.00 0.00 0.00 57 1012.1
20260905165159 34 274 0.0 0.0 0.00 0.00 0.00 56 1012.2
20260905165059 34 245 0.0 0.0 0.00 0.00 0.00 56 1012.2
20260905164959 34 289 0.0 0.0 0.00 0.00 0.00 55 1012.2
20260905164858 34 255 0.0 0.0 0.00 0.00 0.00 56 1012.2
20260905164759 34 255 0.0 0.0 0.00 0.00 0.00 56 1012.3
20260905164559 34 326 0.0 0.0 0.00 0.00 0.00 57 1012.3
20260905164500 34 326 0.0 0.0 0.00 0.00 0.00 57 1012.3
20260905164358 34 326 0.0 0.0 0.00 0.00 0.00 57 1012.3
20260905164259 34 326 0.0 0.0 0.00 0.00 0.00 56 1012.2
20260905164159 34 326 0.0 0.0 0.00 0.00 0.00 56 1012.3
20260905164058 34 326 0.0 0.0 0.00 0.00 0.00 58 1012.4
20260905163959 34 30 0.0 0.0 0.00 0.00 0.00 58 1012.4
20260905163858 34 290 0.0 0.0 0.00 0.00 0.00 57 1012.4
20260905163758 34 239 0.0 0.0 0.00 0.00 0.00 57 1012.5
20260905163659 34 263 0.0 0.0 0.00 0.00 0.00 57 1012.5
20260905163459 34 298 0.0 0.0 0.00 0.00 0.00 59 1012.5
20260905163359 33 301 0.0 0.0 0.00 0.00 0.00 57 1012.5
20260905163258 33 324 0.0 0.0 0.00 0.00 0.00 57 1012.5
20260905163158 33 256 0.0 0.0 0.00 0.00 0.00 57 1012.6
20260905163105 33 273 0.0 0.0 0.00 0.00 0.00 58 1011.6
20260905163059 33 273 0.0 0.0 0.00 0.00 0.00 58 1012.6
20260905162959 33 276 0.0 0.0 0.00 0.00 0.00 57 1012.6
20260905162859 34 243 0.0 0.0 0.00 0.00 0.00 57 1012.6
20260905162358 34 260 0.0 0.0 0.00 0.00 0.00 56 1012.7
20260905162258 34 270 0.0 0.0 0.00 0.00 0.00 57 1012.7
20260905162059 35 247 0.0 0.0 0.00 0.00 0.00 56 1012.6
20260905161958 35 242 0.0 0.0 0.00 0.00 0.00 57 1012.7
20260905161859 35 262 0.0 0.0 0.00 0.00 0.00 57 1012.7
20260905161558 34 267 0.0 0.0 0.00 0.00 0.00 58 1011.7
20260905161459 34 262 0.0 0.0 0.00 0.00 0.00 59 1012.8
20260905161358 34 231 0.0 0.0 0.00 0.00 0.00 58 1012.7
20260905161300 34 160 0.0 0.0 0.00 0.00 0.00 58 1012.7
20260905161058 34 35 0.0 0.0 0.00 0.00 0.00 59 1012.8
20260905160959 34 347 0.0 0.0 0.00 0.00 0.00 59 1012.7
20260905160901 34 346 0.0 0.0 0.00 0.00 0.00 57 1012.7
20260905160658 34 360 0.0 0.0 0.00 0.00 0.00 58 1012.8
20260905160559 34 343 0.0 0.0 0.00 0.00 0.00 59 1012.8
20260905160500 34 340 0.0 0.0 0.00 0.00 0.00 58 1012.8
20260905160400 34 338 0.0 0.0 0.00 0.00 0.00 60 1012.8
20260905160300 34 340 0.0 0.0 0.00 0.00 0.00 58 1012.8
20260905160159 34 345 0.0 0.0 0.00 0.00 0.00 59 1012.7
20260905160059 34 340 0.0 0.0 0.00 0.00 0.00 60 1011.8
20260905160000 33 340 0.0 0.0 0.00 0.00 0.00 59 1012.7
20260905155858 33 340 0.0 0.0 0.00 0.00 0.00 58 1012.9
20260905155757 33 346 0.0 0.0 0.00 0.00 0.00 59 1012.8
20260905155659 33 343 0.0 0.0 0.00 0.00 0.00 60 1012.7
20260905155459 33 345 0.0 0.0 0.00 0.00 0.00 61 1012.8
20260905155258 33 30 0.0 0.0 0.00 0.00 0.00 59 1013.0
20260905155159 33 335 0.0 0.0 0.00 0.00 0.00 61 1012.9
20260905155058 33 314 0.0 0.0 0.00 0.00 0.00 62 1013.0
20260905154958 33 280 0.0 0.0 0.00 0.00 0.00 64 1013.0
20260905154858 33 280 0.0 0.0 0.00 0.00 0.00 64 1013.0
20260905154800 33 280 0.0 0.0 0.00 0.00 0.00 63 1012.9
20260905154657 33 269 0.0 0.0 0.00 0.00 0.00 61 1013.0
20260905154559 33 262 0.0 0.0 0.00 0.00 0.00 60 1013.0
20260905154459 33 249 0.0 0.0 0.00 0.00 0.00 61 1013.0
20260905154358 33 243 0.0 0.0 0.00 0.00 0.00 60 1013.0
20260905154258 33 255 0.0 0.0 0.00 0.00 0.00 60 1012.8
20260905154158 33 271 0.0 0.0 0.00 0.00 0.00 60 1013.0
20260905154058 33 232 0.0 0.0 0.00 0.00 0.00 59 1013.0
20260905153959 33 242 0.0 0.0 0.00 0.00 0.00 59 1013.0
20260905153859 33 241 0.0 0.0 0.00 0.00 0.00 60 1013.0
20260905153758 33 238 0.0 0.0 0.00 0.00 0.00 60 1013.0
20260905153657 33 125 0.0 0.0 0.00 0.00 0.00 60 1013.0
20260905153559 33 345 0.0 0.0 0.00 0.00 0.00 59 1013.0
20260905153500 33 345 0.0 0.0 0.00 0.00 0.00 61 1013.0
20260905153400 33 323 0.0 0.0 0.00 0.00 0.00 63 1012.9
20260905153159 33 323 0.0 0.0 0.00 0.00 0.00 62 1013.1
20260905153059 32 323 0.0 0.0 0.00 0.00 0.00 63 1012.2
20260905152858 32 284 0.0 0.0 0.00 0.00 0.00 64 1013.2
20260905152759 32 278 0.0 0.0 0.00 0.00 0.00 65 1013.1
20260905152658 32 278 0.0 0.0 0.00 0.00 0.00 64 1013.2
20260905152359 32 285 0.0 0.0 0.00 0.00 0.00 65 1013.1
20260905152258 32 285 0.0 0.0 0.00 0.00 0.00 64 1013.2
20260905152059 32 284 0.0 0.0 0.00 0.00 0.00 67 1013.2
20260905151958 32 259 0.0 0.0 0.00 0.00 0.00 64 1013.1
20260905151758 32 253 0.0 0.0 0.00 0.00 0.00 65 1013.1
20260905151659 31 325 0.0 0.0 0.00 0.00 0.00 67 1013.2
20260905151558 31 259 0.0 0.0 0.00 0.00 0.00 65 1013.1
20260905151458 31 262 0.0 0.0 0.00 0.00 0.00 65 1013.2
20260905151358 31 252 0.0 0.0 0.00 0.00 0.00 64 1013.1
20260905151258 31 250 0.0 0.0 0.00 0.00 0.00 64 1013.1
20260905151158 31 245 0.0 0.0 0.00 0.00 0.00 65 1013.2
20260905151057 31 256 0.0 0.0 0.00 0.00 0.00 64 1013.2
20260905150958 31 240 0.0 0.0 0.00 0.00 0.00 65 1013.1
20260905150858 31 243 0.0 0.0 0.00 0.00 0.00 64 1013.2
20260905150759 31 273 0.0 0.0 0.00 0.00 0.00 64 1013.2
20260905150659 31 252 0.0 0.0 0.00 0.00 0.00 66 1013.2
20260905150603 31 252 0.0 0.0 0.00 0.00 0.00 66 1013.2
20260905150500 31 279 0.0 0.0 0.00 0.00 0.00 65 1013.1
20260905150359 31 279 0.0 0.0 0.00 0.00 0.00 66 1013.1
20260905150259 31 322 0.0 0.0 0.00 0.00 0.00 69 1013.1
20260905150159 31 332 0.0 0.0 0.00 0.00 0.00 66 1013.1
20260905150058 31 283 0.0 0.0 0.00 0.00 0.00 67 1013.2
20260905145959 31 281 0.0 0.0 0.00 0.00 0.00 68 1013.2
20260905145858 31 281 0.0 0.0 0.00 0.00 0.00 68 1013.2
20260905145759 31 340 0.0 0.0 0.00 0.00 0.00 69 1013.2
20260905145659 31 342 0.0 0.0 0.00 0.00 0.00 68 1013.3
20260905145558 31 273 0.0 0.0 0.00 0.00 0.00 69 1013.1
20260905145359 30 277 0.0 0.0 0.00 0.00 0.00 69 1013.1
20260905145258 30 270 0.0 0.0 0.00 0.00 0.00 70 1013.1
20260905145158 30 340 0.0 0.0 0.00 0.00 0.00 68 1013.1
20260905145058 30 340 0.0 0.0 0.00 0.00 0.00 68 1013.1
20260905144958 30 335 0.0 0.0 0.00 0.00 0.00 69 1013.1
20260905144859 30 275 0.0 0.0 0.00 0.00 0.00 69 1013.1
20260905144759 30 271 0.0 0.0 0.00 0.00 0.00 69 1013.1
20260905144700 30 271 0.0 0.0 0.00 0.00 0.00 69 1013.2
20260905144559 30 257 0.0 0.0 0.00 0.00 0.00 69 1012.2
20260905144500 30 326 0.0 0.0 0.00 0.00 0.00 70 1013.2
20260905144359 30 333 0.0 0.0 0.00 0.00 0.00 71 1013.2
20260905144259 30 340 0.0 0.0 0.00 0.00 0.00 71 1013.1
20260905144058 30 256 0.0 0.0 0.00 0.00 0.00 70 1013.1
20260905143957 30 263 0.0 0.0 0.00 0.00 0.00 70 1013.0
20260905143858 30 252 0.0 1.6 0.00 0.00 0.00 71 1013.2
20260905143658 30 270 0.0 1.6 0.00 0.00 0.00 70 1013.1
20260905143557 30 262 0.0 1.6 0.00 0.00 0.00 70 1013.1
20260905143458 30 263 0.0 1.6 0.00 0.00 0.00 69 1013.2
20260905143259 30 277 0.0 1.6 0.00 0.00 0.00 71 1013.2
20260905143159 30 248 0.0 1.6 0.00 0.00 0.00 70 1013.2
20260905143059 30 243 0.0 1.6 0.00 0.00 0.00 72 1012.2
20260905142958 30 264 0.0 0.0 0.00 0.00 0.00 72 1013.1
20260905142858 30 260 0.0 0.0 0.00 0.00 0.00 71 1013.1
20260905142759 30 259 0.0 0.0 0.00 0.00 0.00 71 1013.1
20260905142659 29 271 0.0 0.0 0.00 0.00 0.00 72 1013.2
20260905142558 29 271 0.0 0.0 0.00 0.00 0.00 72 1013.1
20260905142458 29 271 0.0 0.0 0.00 0.00 0.00 73 1013.1
20260905142359 29 260 0.0 0.0 0.00 0.00 0.00 73 1013.1
20260905142158 29 266 0.0 0.0 0.00 0.00 0.00 73 1013.1
20260905141958 29 260 0.0 0.0 0.00 0.00 0.00 73 1013.1
20260905141859 29 242 0.0 0.0 0.00 0.00 0.00 73 1013.1
20260905141759 29 243 0.0 0.0 0.00 0.00 0.00 73 1013.1
20260905141658 29 284 0.0 0.0 0.00 0.00 0.00 73 1013.0
20260905141612 28 283 0.0 0.0 0.00 0.00 0.00 74 1012.1
20260905141458 28 309 0.0 0.0 0.00 0.00 0.00 74 1013.0
20260905141358 28 281 0.0 0.0 0.00 0.00 0.00 74 1013.0
20260905141258 28 269 0.0 0.0 0.00 0.00 0.00 73 1013.0
20260905141159 28 273 0.0 0.0 0.00 0.00 0.00 74 1013.0
20260905140958 28 257 0.0 0.0 0.00 0.00 0.00 74 1013.0
20260905140859 28 257 0.0 0.0 0.00 0.00 0.00 75 1012.9
20260905140757 28 257 0.0 0.0 0.00 0.00 0.00 75 1013.1
20260905140658 28 257 0.0 0.0 0.00 0.00 0.00 75 1013.0
20260905140557 28 257 0.0 0.0 0.00 0.00 0.00 75 1013.0
20260905140358 28 255 0.0 0.0 0.00 0.00 0.00 75 1013.0
20260905140258 28 250 0.0 0.0 0.00 0.00 0.00 75 1013.0
20260905140104 28 323 0.0 0.0 0.00 0.00 0.00 74 1011.9
20260905140059 28 323 0.0 0.0 0.00 0.00 0.00 74 1012.8
20260905140000 28 323 0.0 0.0 0.00 0.00 0.00 74 1012.8
20260905135858 28 326 0.0 0.0 0.00 0.00 0.00 75 1012.8
20260905135758 28 259 0.0 0.0 0.00 0.00 0.00 74 1012.9
20260905135658 28 257 0.0 0.0 0.00 0.00 0.00 75 1013.0
20260905135558 28 257 0.0 0.0 0.00 0.00 0.00 75 1012.9
20260905135458 28 271 0.0 0.0 0.00 0.00 0.00 75 1012.9
20260905135359 28 265 0.0 0.0 0.00 0.00 0.00 75 1012.9
20260905135158 28 243 0.0 0.0 0.00 0.00 0.00 76 1012.9
20260905135058 28 250 0.0 0.0 0.00 0.00 0.00 76 1012.9
20260905134957 27 249 0.0 0.0 0.00 0.00 0.00 76 1012.9
20260905134858 27 252 0.0 0.0 0.00 0.00 0.00 76 1012.9
20260905134758 27 252 0.0 0.0 0.00 0.00 0.00 77 1012.9
20260905134658 27 269 0.0 0.0 0.00 0.00 0.00 78 1012.8
20260905134607 27 267 0.0 0.0 0.00 0.00 0.00 78 1012.0
20260905134558 27 267 0.0 0.0 0.00 0.00 0.00 78 1012.9
20260905134500 27 269 0.0 0.0 0.00 0.00 0.00 78 1012.8
20260905134358 27 269 0.0 0.0 0.00 0.00 0.00 78 1012.8
20260905134259 27 269 0.0 0.0 0.00 0.00 0.00 78 1012.8
20260905134159 27 266 0.0 0.0 0.00 0.00 0.00 78 1012.8
20260905134059 27 280 0.0 0.0 0.00 0.00 0.00 78 1012.8
20260905133958 27 281 0.0 0.0 0.00 0.00 0.00 79 1012.8
20260905133858 27 280 0.0 0.0 0.00 0.00 0.00 80 1012.8
20260905133659 27 278 0.0 0.0 0.00 0.00 0.00 79 1012.8
20260905133559 27 278 0.0 0.0 0.00 0.00 0.00 80 1012.8
20260905133458 27 287 0.0 0.0 0.00 0.00 0.00 81 1012.8
20260905133358 27 288 0.0 0.0 0.00 0.00 0.00 81 1013.0
20260905133301 27 288 0.0 0.0 0.00 0.00 0.00 81 1012.9
20260905133200 27 288 0.0 0.0 0.00 0.00 0.00 81 1013.0
20260905133059 27 288 0.0 0.0 0.00 0.00 0.00 81 1012.0
20260905132959 26 288 0.0 0.0 0.00 0.00 0.00 81 1012.9
20260905132858 26 288 0.0 0.0 0.00 0.00 0.00 82 1012.9
20260905132658 26 288 0.0 0.0 0.00 0.00 0.00 82 1012.8
20260905132558 26 288 0.0 0.0 0.00 0.00 0.00 82 1012.8
20260905132459 26 288 0.0 0.0 0.00 0.00 0.00 82 1012.9
20260905132359 26 283 0.0 0.0 0.00 0.00 0.00 82 1012.9
20260905132258 26 283 0.0 0.0 0.00 0.00 0.00 82 1012.9
20260905132158 26 285 0.0 0.0 0.00 0.00 0.00 82 1012.9
20260905132058 26 286 0.0 0.0 0.00 0.00 0.00 83 1012.9
20260905131958 26 287 0.0 0.0 0.00 0.00 0.00 83 1012.8
20260905131858 26 287 0.0 0.0 0.00 0.00 0.00 83 1012.9
20260905131759 26 286 0.0 0.0 0.00 0.00 0.00 82 1012.8
20260905131658 26 266 0.0 0.0 0.00 0.00 0.00 83 1012.8
20260905131601 26 252 0.0 0.0 0.00 0.00 0.00 84 1011.8
20260905131559 26 252 0.0 0.0 0.00 0.00 0.00 84 1012.8
20260905131457 26 252 0.0 0.0 0.00 0.00 0.00 83 1012.7
20260905131358 26 257 0.0 0.0 0.00 0.00 0.00 84 1012.7
20260905131257 26 257 0.0 0.0 0.00 0.00 0.00 84 1012.8
20260905131158 26 257 0.0 0.0 0.00 0.00 0.00 84 1012.8
20260905130957 26 252 0.0 0.0 0.00 0.00 0.00 84 1012.9
20260905130858 26 252 0.0 0.0 0.00 0.00 0.00 84 1012.8
20260905130758 26 253 0.0 0.0 0.00 0.00 0.00 85 1012.8
20260905130359 26 253 0.0 0.0 0.00 0.00 0.00 85 1012.9
20260905130258 26 253 0.0 0.0 0.00 0.00 0.00 85 1012.9
20260905130159 26 253 0.0 0.0 0.00 0.00 0.00 85 1013.0
20260905130100 26 250 0.0 0.0 0.00 0.00 0.00 85 1012.0
20260905130057 26 250 0.0 0.0 0.00 0.00 0.00 85 1013.0
20260905130000 25 247 0.0 0.0 0.00 0.00 0.00 85 1013.0
20260905125859 25 246 0.0 0.0 0.00 0.00 0.00 85 1013.0